KC5DAQ-23 Weather Reports


Display with metric or nautical units.
time (UTC)temp
F
wind
direction
speed
MPH
gust
MPH
rain 1hr
in
rain 24hr
in
rain mn
in
humidity
%
barometer
mb
20220522131433 70 80 2.0 4.0 0.09 0.26 0.26 96 1020.6
20220522131334 70 80 2.0 4.0 0.09 0.25 0.26 96 1020.7
20220522131233 70 80 2.0 5.0 0.09 0.25 0.25 96 1020.8
20220522131136 70 80 2.0 6.0 0.09 0.25 0.25 96 1020.8
20220522131035 70 72 2.0 7.0 0.09 0.25 0.25 96 1020.8
20220522130933 70 71 3.0 9.0 0.09 0.25 0.25 96 1020.8
20220522130834 70 71 2.0 9.0 0.09 0.25 0.25 96 1020.8
20220522130733 70 69 1.0 9.0 0.09 0.24 0.25 97 1020.8
20220522130633 70 66 0.0 9.0 0.09 0.24 0.24 97 1020.9
20220522130533 70 66 1.0 11.0 0.09 0.24 0.24 97 1020.8
20220522130436 70 66 2.0 11.0 0.09 0.24 0.24 97 1020.8
20220522130334 70 66 2.0 11.0 0.09 0.24 0.24 97 1020.8
20220522130233 70 39 2.0 11.0 0.09 0.24 0.24 97 1020.7
20220522130136 70 30 4.0 11.0 0.08 0.24 0.24 97 1020.6
20220522130033 70 45 4.0 11.0 0.09 0.24 0.24 97 1020.6
20220522125933 70 37 3.0 11.0 0.09 0.24 0.24 97 1020.6
20220522125844 70 44 4.0 11.0 0.09 0.24 0.24 97 1020.6
20220522125732 70 27 4.0 11.0 0.09 0.24 0.24 97 1020.7
20220522125634 70 51 4.0 11.0 0.09 0.23 0.24 97 1020.8
20220522125532 70 6 4.0 13.0 0.09 0.23 0.23 97 1020.7
20220522125434 70 41 5.0 13.0 0.09 0.23 0.23 97 1020.6
20220522125333 70 39 6.0 13.0 0.09 0.23 0.23 97 1020.6
20220522125232 70 32 6.0 13.0 0.09 0.22 0.23 97 1020.6
20220522125132 70 18 6.0 13.0 0.08 0.22 0.22 97 1020.7
20220522125032 70 97 5.0 13.0 0.08 0.22 0.22 97 1020.7
20220522124935 70 48 6.0 13.0 0.09 0.22 0.22 97 1020.8
20220522124842 70 35 6.0 13.0 0.09 0.22 0.22 97 1020.7
20220522124733 70 68 6.0 13.0 0.09 0.22 0.22 97 1021.0
20220522124632 70 66 6.0 13.0 0.09 0.21 0.22 97 1021.0
20220522124533 70 28 4.0 12.0 0.08 0.21 0.21 97 1021.2
20220522124432 70 72 4.0 10.0 0.08 0.21 0.21 97 1021.2
20220522124332 70 30 5.0 10.0 0.09 0.21 0.21 97 1021.3
20220522124232 70 27 5.0 10.0 0.09 0.20 0.21 97 1021.4
20220522124132 70 37 5.0 9.0 0.08 0.20 0.20 97 1021.5
20220522124031 70 38 4.0 9.0 0.08 0.20 0.20 97 1021.5
20220522123932 70 35 3.0 9.0 0.08 0.20 0.20 97 1021.5
20220522123832 70 30 4.0 9.0 0.08 0.20 0.20 97 1021.6
20220522123734 70 44 5.0 9.0 0.09 0.20 0.20 96 1021.6
20220522123635 70 41 4.0 9.0 0.09 0.20 0.20 96 1021.6
20220522123532 70 24 4.0 9.0 0.08 0.20 0.20 97 1021.6
20220522123431 70 78 4.0 7.0 0.08 0.20 0.20 96 1021.7
20220522123332 70 48 4.0 7.0 0.08 0.20 0.20 96 1021.6
20220522123234 70 47 4.0 6.0 0.09 0.20 0.20 96 1021.9
20220522123132 70 39 4.0 6.0 0.09 0.19 0.20 97 1021.9
20220522123036 70 49 2.0 5.0 0.08 0.19 0.19 96 1022.0
20220522122932 70 51 2.0 6.0 0.08 0.19 0.19 96 1022.1
20220522122833 70 51 3.0 6.0 0.08 0.19 0.19 96 1022.1
20220522122731 70 56 2.0 6.0 0.09 0.19 0.19 96 1022.1
20220522122633 70 54 2.0 6.0 0.09 0.19 0.19 97 1022.1
20220522122532 70 55 2.0 6.0 0.09 0.19 0.19 97 1022.1
20220522122432 70 55 3.0 6.0 0.08 0.18 0.18 97 1022.1
20220522122332 70 52 2.0 6.0 0.08 0.18 0.18 96 1021.9
20220522122234 70 52 2.0 6.0 0.09 0.18 0.18 96 1022.0
20220522122132 70 52 3.0 6.0 0.09 0.18 0.18 96 1021.9
20220522122032 70 52 3.0 6.0 0.09 0.17 0.18 96 1021.8
20220522121933 69 25 2.0 4.0 0.08 0.17 0.17 96 1021.8
20220522121834 70 24 2.0 4.0 0.08 0.17 0.17 96 1021.7
20220522121732 69 24 1.0 4.0 0.08 0.17 0.17 96 1021.7
20220522121635 70 24 2.0 4.0 0.09 0.17 0.17 96 1021.7
20220522121534 70 24 2.0 4.0 0.09 0.17 0.17 96 1021.7
20220522121432 70 49 2.0 4.0 0.09 0.17 0.17 96 1021.6
20220522121333 70 48 2.0 4.0 0.09 0.17 0.17 97 1021.6
20220522121231 70 69 1.0 4.0 0.08 0.17 0.17 97 1021.6
20220522121133 70 69 2.0 6.0 0.08 0.17 0.17 97 1021.6
20220522121031 70 69 2.0 6.0 0.09 0.17 0.17 97 1021.7
20220522120933 70 71 2.0 6.0 0.09 0.17 0.17 96 1021.7
20220522120832 70 71 2.0 7.0 0.09 0.16 0.17 96 1021.7
20220522120731 69 71 2.0 7.0 0.08 0.16 0.16 96 1021.7
20220522120629 70 71 2.0 9.0 0.08 0.16 0.16 96 1021.7
20220522120528 70 80 1.0 9.0 0.08 0.16 0.16 96 1021.8
20220522120426 70 80 2.0 9.0 0.08 0.16 0.16 96 1021.7
20220522120325 70 80 2.0 9.0 0.08 0.16 0.16 96 1021.8
20220522120223 70 80 3.0 9.0 0.08 0.16 0.16 96 1021.7
20220522120123 70 82 4.0 9.0 0.08 0.15 0.16 96 1021.6
20220522120024 70 62 4.0 9.0 0.07 0.15 0.15 96 1021.6
20220522115921 70 83 4.0 9.0 0.07 0.15 0.15 96 1021.7
20220522115819 70 75 4.0 9.0 0.07 0.15 0.15 96 1021.7
20220522115719 70 72 4.0 9.0 0.08 0.15 0.15 96 1021.7
20220522115621 70 65 4.0 6.0 0.08 0.14 0.15 96 1021.9
20220522115519 70 107 4.0 6.0 0.07 0.14 0.14 96 1022.0
20220522115414 70 151 3.0 7.0 0.07 0.14 0.14 96 1022.1
20220522115315 70 195 2.0 7.0 0.07 0.14 0.14 96 1022.3
20220522115213 70 200 1.0 7.0 0.07 0.14 0.14 96 1022.4
20220522115112 70 200 1.0 7.0 0.07 0.14 0.14 96 1022.5
20220522115008 70 200 2.0 7.0 0.07 0.13 0.14 96 1022.6
20220522114908 70 200 3.0 7.0 0.06 0.13 0.13 96 1022.6
20220522114807 70 200 4.0 7.0 0.06 0.13 0.13 96 1022.7
20220522114652 70 200 5.0 7.0 0.06 0.13 0.13 96 1022.6
20220522114551 70 197 5.0 7.0 0.06 0.13 0.13 96 1022.7
20220522114451 70 196 5.0 7.0 0.06 0.13 0.13 96 1022.7
20220522114350 70 142 4.0 6.0 0.06 0.13 0.13 96 1022.7
20220522114250 70 140 4.0 6.0 0.06 0.13 0.13 96 1022.6
20220522114150 70 118 4.0 6.0 0.06 0.13 0.13 96 1022.6
20220522114054 70 87 4.0 5.0 0.06 0.13 0.13 96 1022.6
20220522113951 70 86 3.0 5.0 0.06 0.13 0.13 96 1022.5
20220522113849 70 56 3.0 4.0 0.06 0.13 0.13 96 1022.5
20220522113752 70 48 3.0 4.0 0.06 0.12 0.13 96 1022.5
20220522113653 70 47 2.0 4.0 0.05 0.12 0.12 96 1022.4
20220522113550 70 44 2.0 3.0 0.05 0.12 0.12 96 1022.3
20220522113450 70 44 2.0 2.0 0.05 0.12 0.12 96 1022.3
20220522113352 70 44 1.0 2.0 0.05 0.11 0.12 96 1022.2
20220522113250 70 44 1.0 2.0 0.04 0.11 0.11 96 1022.3
20220522113152 70 44 0.0 2.0 0.04 0.11 0.11 96 1022.2
20220522113051 70 44 0.0 2.0 0.04 0.11 0.11 96 1022.0
20220522112949 70 44 0.0 2.0 0.04 0.11 0.11 96 1022.0
20220522112851 69 44 0.0 4.0 0.04 0.11 0.11 96 1021.9
20220522112749 70 44 0.0 4.0 0.04 0.10 0.11 96 1022.0
20220522112653 69 44 0.0 4.0 0.03 0.10 0.10 96 1021.9
20220522112550 69 44 0.0 5.0 0.03 0.10 0.10 96 1021.9
20220522112449 69 44 0.0 5.0 0.03 0.10 0.10 96 1022.0
20220522112351 69 44 0.0 5.0 0.03 0.09 0.10 96 1022.0
20220522112249 69 44 1.0 5.0 0.02 0.09 0.09 96 1022.0
20220522112151 69 44 1.0 5.0 0.02 0.09 0.09 96 1021.9
20220522112054 69 44 2.0 6.0 0.02 0.09 0.09 96 1021.9
20220522111953 69 44 2.0 6.0 0.02 0.09 0.09 96 1021.9
20220522111850 69 44 3.0 6.0 0.02 0.09 0.09 96 1021.8
20220522111753 69 44 4.0 6.0 0.02 0.09 0.09 96 1021.6
20220522111653 69 44 4.0 6.0 0.02 0.09 0.09 96 1021.6
20220522111550 69 41 4.0 6.0 0.02 0.09 0.09 96 1021.5
20220522111449 69 41 4.0 6.0 0.02 0.09 0.09 96 1021.4
20220522111352 69 45 3.0 6.0 0.02 0.09 0.09 96 1021.4
20220522111252 69 47 3.0 6.0 0.02 0.09 0.09 96 1021.3
20220522111151 69 47 3.0 6.0 0.02 0.08 0.09 96 1021.3
20220522111053 69 72 2.0 7.0 0.01 0.08 0.08 96 1021.3
20220522110949 69 73 2.0 9.0 0.01 0.08 0.08 96 1021.2
20220522110851 69 73 2.0 9.0 0.01 0.08 0.08 96 1021.2
20220522110749 69 73 2.0 9.0 0.01 0.08 0.08 96 1021.2
20220522110653 69 73 2.0 9.0 0.01 0.08 0.08 96 1021.2
20220522110550 69 73 4.0 9.0 0.01 0.08 0.08 96 1021.3
20220522110451 69 73 4.0 9.0 0.01 0.08 0.08 96 1021.3
20220522110350 69 73 5.0 9.0 0.01 0.08 0.08 96 1021.2
20220522110250 69 72 5.0 9.0 0.01 0.08 0.08 96 1021.3
20220522110149 69 69 5.0 9.0 0.01 0.08 0.08 96 1021.2
20220522110049 69 71 5.0 9.0 0.01 0.08 0.08 96 1021.1
20220522105951 69 63 4.0 7.0 0.01 0.08 0.08 96 1021.1
20220522105851 69 58 4.0 7.0 0.02 0.08 0.08 96 1021.1
20220522105753 69 52 3.0 7.0 0.02 0.08 0.08 96 1021.0
20220522105651 69 79 2.0 6.0 0.01 0.07 0.07 96 1020.9
20220522105549 69 79 2.0 6.0 0.01 0.07 0.07 96 1020.8
20220522105450 69 76 2.0 6.0 0.01 0.07 0.07 96 1020.7
20220522105349 69 76 3.0 6.0 0.01 0.07 0.07 96 1020.6
20220522105251 69 76 4.0 6.0 0.01 0.07 0.07 96 1020.5
20220522105149 70 75 4.0 6.0 0.01 0.07 0.07 96 1020.4
20220522105050 70 71 3.0 6.0 0.02 0.07 0.07 96 1020.3
20220522104951 69 71 4.0 6.0 0.02 0.07 0.07 96 1020.3
20220522104851 70 71 4.0 6.0 0.02 0.07 0.07 96 1020.2
20220522104752 70 71 4.0 6.0 0.02 0.07 0.07 96 1020.3
20220522104651 70 71 4.0 6.0 0.02 0.07 0.07 96 1020.2
20220522104553 70 69 5.0 6.0 0.02 0.07 0.07 96 1020.2
20220522104449 70 68 4.0 6.0 0.02 0.07 0.07 96 1020.3
20220522104350 70 61 4.0 6.0 0.02 0.07 0.07 96 1020.2
20220522104252 70 44 4.0 5.0 0.02 0.07 0.07 96 1020.2
20220522104152 70 32 4.0 5.0 0.02 0.07 0.07 96 1020.1
20220522104050 69 21 4.0 5.0 0.02 0.07 0.07 96 1020.1
20220522103950 69 4 3.0 4.0 0.03 0.07 0.07 96 1019.9
20220522103850 69 0 2.0 4.0 0.03 0.07 0.07 96 1019.9
20220522103750 69 0 1.0 4.0 0.03 0.07 0.07 96 1019.8
20220522103650 69 0 1.0 4.0 0.03 0.07 0.07 96 1019.7
20220522103550 69 0 2.0 5.0 0.03 0.07 0.07 96 1019.5
20220522103453 69 0 2.0 5.0 0.04 0.07 0.07 96 1019.3
20220522103350 69 0 1.0 5.0 0.04 0.07 0.07 96 1019.1
20220522103252 69 0 1.0 5.0 0.05 0.07 0.07 96 1019.0
20220522103153 69 0 2.0 5.0 0.05 0.07 0.07 96 1018.9
20220522103049 69 0 2.0 5.0 0.05 0.07 0.07 95 1018.8
20220522102949 69 0 2.0 6.0 0.05 0.07 0.07 96 1018.7
20220522102854 69 0 2.0 6.0 0.05 0.07 0.07 96 1018.6
20220522102752 69 0 3.0 6.0 0.05 0.07 0.07 95 1018.6
20220522102651 69 0 4.0 7.0 0.06 0.07 0.07 95 1018.4
20220522102549 69 0 3.0 7.0 0.06 0.07 0.07 96 1018.3
20220522102450 69 0 3.0 7.0 0.06 0.07 0.07 96 1018.3
20220522102352 69 0 3.0 7.0 0.06 0.07 0.07 96 1018.2
20220522102250 69 0 3.0 7.0 0.06 0.07 0.07 95 1018.1
20220522102151 69 0 4.0 7.0 0.06 0.07 0.07 95 1018.0
20220522102052 69 0 5.0 7.0 0.07 0.07 0.07 95 1017.8
20220522101950 69 0 5.0 7.0 0.07 0.07 0.07 95 1017.8
20220522101850 69 0 4.0 7.0 0.07 0.07 0.07 95 1017.6
20220522101749 69 0 3.0 7.0 0.07 0.07 0.07 95 1017.5
20220522101650 69 0 3.0 7.0 0.07 0.07 0.07 95 1017.5
20220522101551 69 358 3.0 7.0 0.07 0.07 0.07 95 1017.5
20220522101450 69 358 3.0 7.0 0.07 0.07 0.07 95 1017.3
20220522101355 69 358 4.0 7.0 0.07 0.07 0.07 95 1017.3
20220522101250 69 358 4.0 7.0 0.07 0.07 0.07 95 1017.2
20220522101153 69 358 3.0 7.0 0.07 0.07 0.07 95 1017.1
20220522101051 69 345 4.0 7.0 0.07 0.07 0.07 95 1017.1
20220522100949 69 348 3.0 7.0 0.07 0.07 0.07 95 1017.0
20220522100851 69 0 4.0 7.0 0.07 0.07 0.07 95 1016.9
20220522100753 69 0 5.0 7.0 0.07 0.07 0.07 95 1016.9
20220522100649 69 0 4.0 6.0 0.07 0.07 0.07 95 1016.9
20220522100552 69 0 5.0 6.0 0.07 0.07 0.07 95 1017.1
20220522100452 69 0 4.0 6.0 0.07 0.07 0.07 94 1017.0
20220522100354 69 0 4.0 6.0 0.07 0.07 0.07 94 1017.1
20220522100251 69 0 4.0 6.0 0.07 0.07 0.07 94 1017.0
20220522100152 69 0 4.0 6.0 0.07 0.07 0.07 94 1017.0
20220522100050 69 357 4.0 7.0 0.07 0.07 0.07 94 1016.9
20220522095949 69 355 4.0 7.0 0.07 0.06 0.07 94 1017.0
20220522095850 69 353 3.0 7.0 0.06 0.06 0.06 94 1017.0
20220522095754 69 353 4.0 7.0 0.06 0.06 0.06 94 1017.0
20220522095649 69 353 4.0 7.0 0.06 0.06 0.06 94 1017.1
20220522095550 69 350 3.0 7.0 0.06 0.06 0.06 94 1017.2
20220522095450 69 350 3.0 7.0 0.06 0.06 0.06 94 1017.2
20220522095351 69 348 3.0 7.0 0.06 0.06 0.06 94 1017.2
20220522095249 69 348 4.0 7.0 0.06 0.06 0.06 94 1017.2
20220522095149 69 0 4.0 7.0 0.06 0.06 0.06 94 1017.1
20220522095050 69 357 3.0 7.0 0.06 0.06 0.06 94 1017.0
20220522094950 69 347 3.0 10.0 0.06 0.06 0.06 94 1017.1
20220522094849 69 347 3.0 11.0 0.06 0.06 0.06 94 1017.0
20220522094749 69 348 4.0 11.0 0.06 0.06 0.06 94 1016.9
20220522094650 69 348 3.0 11.0 0.06 0.06 0.06 94 1016.9
20220522094550 69 350 3.0 11.0 0.06 0.05 0.06 93 1016.9
20220522094450 69 345 2.0 13.0 0.05 0.05 0.05 93 1016.9
20220522094350 69 345 3.0 13.0 0.05 0.05 0.05 93 1016.9
20220522094250 70 312 4.0 13.0 0.05 0.05 0.05 93 1017.0
20220522094155 70 307 6.0 13.0 0.05 0.05 0.05 93 1017.1
20220522094052 70 298 7.0 13.0 0.05 0.04 0.05 92 1017.1
20220522093951 70 266 7.0 13.0 0.04 0.04 0.04 92 1017.1
20220522093849 70 299 6.0 15.0 0.04 0.04 0.04 92 1017.1
20220522093753 70 293 4.0 17.0 0.04 0.04 0.04 92 1017.1
20220522093651 70 309 5.0 18.0 0.04 0.04 0.04 92 1017.1
20220522093549 70 303 6.0 23.0 0.04 0.04 0.04 92 1017.1
20220522093450 70 317 6.0 23.0 0.03 0.03 0.03 92 1017.2
20220522093351 70 321 7.0 24.0 0.03 0.02 0.03 91 1017.2
20220522093254 71 299 12.0 24.0 0.02 0.02 0.02 90 1017.2
20220522093152 71 299 12.0 24.0 0.02 0.02 0.02 90 1017.3
20220522093054 71 299 12.0 24.0 0.02 0.02 0.02 90 1017.4
20220522092950 71 299 12.0 24.0 0.02 0.02 0.02 90 1017.4
20220522092850 71 323 12.0 26.0 0.02 0.02 0.02 90 1017.3
20220522092750 71 300 15.0 29.0 0.02 0.02 0.02 89 1017.4
20220522092651 71 296 15.0 29.0 0.02 0.02 0.02 89 1017.5
20220522092552 71 309 14.0 29.0 0.02 0.02 0.02 88 1017.4
20220522092454 72 275 14.0 29.0 0.02 0.01 0.02 88 1017.6
20220522092354 72 306 13.0 29.0 0.01 0.01 0.01 88 1017.6
20220522092252 72 309 15.0 29.0 0.01 0.01 0.01 87 1017.7
20220522092151 72 278 15.0 29.0 0.01 0.01 0.01 86 1017.9
20220522092051 73 305 17.0 29.0 0.00 0.00 0.00 85 1017.9
20220522091949 73 266 20.0 29.0 0.00 0.00 0.00 85 1018.0
20220522091850 73 264 18.0 29.0 0.00 0.00 0.00 84 1017.8
20220522091749 74 289 14.0 23.0 0.00 0.00 0.00 84 1017.8
20220522091649 74 293 13.0 23.0 0.00 0.00 0.00 84 1017.5
20220522091548 74 303 11.0 23.0 0.00 0.00 0.00 83 1017.6
20220522091449 74 303 10.0 23.0 0.00 0.00 0.00 83 1017.4
20220522091354 74 299 12.0 23.0 0.00 0.00 0.00 83 1017.4
20220522091249 74 268 13.0 23.0 0.00 0.00 0.00 83 1017.4
20220522091151 75 293 12.0 23.0 0.00 0.00 0.00 82 1017.5
20220522091050 75 338 12.0 23.0 0.00 0.00 0.00 82 1017.5
20220522090951 75 306 13.0 23.0 0.00 0.00 0.00 82 1017.5
20220522090852 76 282 13.0 23.0 0.00 0.00 0.00 82 1017.4
20220522090749 76 299 14.0 23.0 0.00 0.00 0.00 82 1017.4
20220522090652 77 329 15.0 23.0 0.00 0.00 0.00 81 1017.4
20220522090550 77 327 15.0 23.0 0.00 0.00 0.00 81 1017.2
20220522090449 78 317 15.0 20.0 0.00 0.00 0.00 83 1017.2
20220522090353 79 303 14.0 20.0 0.00 0.00 0.00 86 1017.1
20220522090249 80 316 12.0 20.0 0.00 0.00 0.00 90 1017.0
20220522090151 80 317 9.0 17.0 0.00 0.00 0.00 91 1016.9
20220522090050 80 290 7.0 10.0 0.00 0.00 0.00 91 1016.7
20220522085950 81 290 6.0 10.0 0.00 0.00 0.00 91 1016.6
20220522085851 80 275 6.0 7.0 0.00 0.00 0.00 91 1016.6
20220522085749 80 296 6.0 7.0 0.00 0.00 0.00 91 1016.5
20220522085653 81 295 5.0 6.0 0.00 0.00 0.00 91 1016.5
20220522085551 80 300 5.0 6.0 0.00 0.00 0.00 91 1016.4
20220522085451 81 281 4.0 5.0 0.00 0.00 0.00 91 1016.4
20220522085350 81 275 3.0 5.0 0.00 0.00 0.00 91 1016.3
20220522085251 81 275 3.0 5.0 0.00 0.00 0.00 91 1016.3
20220522085149 81 164 2.0 5.0 0.00 0.00 0.00 91 1016.3
20220522085050 81 164 2.0 5.0 0.00 0.00 0.00 91 1016.2
20220522084950 81 159 2.0 6.0 0.00 0.00 0.00 91 1016.2
20220522084850 81 158 2.0 6.0 0.00 0.00 0.00 91 1016.1
20220522084749 81 158 2.0 7.0 0.00 0.00 0.00 91 1016.1
20220522084654 81 158 2.0 7.0 0.00 0.00 0.00 91 1016.0
20220522084549 81 157 3.0 9.0 0.00 0.00 0.00 91 1015.8
20220522084449 81 173 3.0 9.0 0.00 0.00 0.00 91 1015.8
20220522084351 81 173 3.0 9.0 0.00 0.00 0.00 91 1015.7
20220522084250 81 185 3.0 9.0 0.00 0.00 0.00 91 1015.6
20220522084150 81 185 4.0 9.0 0.00 0.00 0.00 91 1015.6
20220522084050 81 183 5.0 9.0 0.00 0.00 0.00 91 1015.5
20220522083950 81 188 5.0 9.0 0.00 0.00 0.00 91 1015.4
20220522083850 81 203 5.0 9.0 0.00 0.00 0.00 90 1015.4
20220522083753 81 180 5.0 9.0 0.00 0.00 0.00 90 1015.4
20220522083650 81 182 6.0 9.0 0.00 0.00 0.00 90 1015.5
20220522083550 81 169 5.0 9.0 0.00 0.00 0.00 91 1015.5
20220522083451 81 204 5.0 9.0 0.00 0.00 0.00 90 1015.4
20220522083350 81 172 5.0 9.0 0.00 0.00 0.00 90 1015.5
20220522083253 81 185 6.0 9.0 0.00 0.00 0.00 90 1015.4
20220522083148 81 186 6.0 9.0 0.00 0.00 0.00 90 1015.5
20220522083050 81 185 6.0 9.0 0.00 0.00 0.00 90 1015.4
20220522082952 81 185 6.0 9.0 0.00 0.00 0.00 90 1015.4
20220522082850 81 199 5.0 9.0 0.00 0.00 0.00 90 1015.4
20220522082752 81 199 5.0 9.0 0.00 0.00 0.00 90 1015.4
20220522082649 81 192 5.0 9.0 0.00 0.00 0.00 90 1015.4
20220522082551 81 182 6.0 9.0 0.00 0.00 0.00 90 1015.3
20220522082451 81 188 6.0 9.0 0.00 0.00 0.00 90 1015.2
20220522082349 81 197 4.0 9.0 0.00 0.00 0.00 90 1015.2
20220522082253 81 206 4.0 9.0 0.00 0.00 0.00 90 1015.2
20220522082150 81 192 5.0 10.0 0.00 0.00 0.00 90 1015.1
20220522082050 81 196 5.0 10.0 0.00 0.00 0.00 90 1015.1
20220522081953 81 176 5.0 10.0 0.00 0.00 0.00 90 1015.0
20220522081851 81 180 6.0 10.0 0.00 0.00 0.00 90 1015.1
20220522081750 81 189 5.0 10.0 0.00 0.00 0.00 90 1015.1
20220522081649 81 175 5.0 10.0 0.00 0.00 0.00 90 1015.2
20220522081551 81 165 6.0 10.0 0.00 0.00 0.00 90 1015.2
20220522081451 81 183 6.0 10.0 0.00 0.00 0.00 90 1015.2
20220522081349 81 192 6.0 10.0 0.00 0.00 0.00 90 1015.2
20220522081253 81 186 7.0 10.0 0.00 0.00 0.00 90 1015.2
20220522081154 81 202 7.0 10.0 0.00 0.00 0.00 90 1015.2
20220522081050 81 203 6.0 10.0 0.00 0.00 0.00 91 1015.1
20220522080950 81 219 5.0 10.0 0.00 0.00 0.00 91 1015.1
20220522080849 81 189 5.0 10.0 0.00 0.00 0.00 91 1015.1
20220522080749 81 168 6.0 10.0 0.00 0.00 0.00 91 1015.1
20220522080707 81 186 6.0 10.0 0.00 0.00 0.00 91 1015.0
20220522080657 81 171 6.0 10.0 0.00 0.00 0.00 91 1015.0
20220522080649 81 164 6.0 10.0 0.00 0.00 0.00 91 1015.0
20220522080455 81 169 6.0 10.0 0.00 0.00 0.00 91 1015.1
20220522080321 81 190 6.0 10.0 0.00 0.00 0.00 91 1015.1
20220522080151 81 178 6.0 10.0 0.00 0.00 0.00 91 1015.1
20220522080052 81 183 7.0 10.0 0.00 0.00 0.00 91 1015.0
20220522075949 81 195 7.0 10.0 0.00 0.00 0.00 91 1015.1
20220522075852 81 166 5.0 10.0 0.00 0.00 0.00 91 1015.0
20220522075750 81 183 5.0 10.0 0.00 0.00 0.00 91 1015.0
20220522075650 81 188 4.0 10.0 0.00 0.00 0.00 91 1015.0
20220522075550 81 165 4.0 10.0 0.00 0.00 0.00 91 1015.0
20220522075450 81 196 4.0 10.0 0.00 0.00 0.00 91 1015.0
20220522075352 81 206 4.0 10.0 0.00 0.00 0.00 91 1015.1
20220522075250 81 164 4.0 10.0 0.00 0.00 0.00 91 1015.0
20220522075149 81 176 4.0 10.0 0.00 0.00 0.00 91 1015.0
20220522075050 81 195 5.0 10.0 0.00 0.00 0.00 91 1015.0
20220522074949 81 179 5.0 11.0 0.00 0.00 0.00 91 1015.0
20220522074850 81 192 4.0 11.0 0.00 0.00 0.00 91 1014.9
20220522074752 81 188 5.0 11.0 0.00 0.00 0.00 91 1015.0
20220522074648 81 182 6.0 11.0 0.00 0.00 0.00 91 1015.0
20220522074550 81 185 6.0 11.0 0.00 0.00 0.00 91 1015.0
20220522074449 81 200 5.0 16.0 0.00 0.00 0.00 91 1015.0
20220522074350 81 188 5.0 16.0 0.00 0.00 0.00 91 1015.0
20220522074250 81 178 6.0 16.0 0.00 0.00 0.00 91 1014.9
20220522074150 81 176 7.0 16.0 0.00 0.00 0.00 91 1014.8
20220522074053 81 176 8.0 16.0 0.00 0.00 0.00 91 1014.7
20220522073950 81 188 6.0 16.0 0.00 0.00 0.00 91 1014.7
20220522073850 81 189 5.0 16.0 0.00 0.00 0.00 91 1014.7
20220522073750 81 200 7.0 16.0 0.00 0.00 0.00 90 1014.6
20220522073651 81 164 9.0 16.0 0.00 0.00 0.00 90 1014.5
20220522073549 81 169 9.0 16.0 0.00 0.00 0.00 90 1014.5
20220522073450 81 142 10.0 15.0 0.00 0.00 0.00 90 1014.4
20220522073350 81 178 11.0 15.0 0.00 0.00 0.00 90 1014.5
20220522073249 81 164 9.0 14.0 0.00 0.00 0.00 90 1014.5
20220522073153 81 152 9.0 14.0 0.00 0.00 0.00 90 1014.4
20220522073053 81 137 8.0 14.0 0.00 0.00 0.00 90 1014.4
20220522072949 81 154 8.0 14.0 0.00 0.00 0.00 90 1014.3
20220522072849 81 189 7.0 14.0 0.00 0.00 0.00 90 1014.3
20220522072748 82 169 6.0 14.0 0.00 0.00 0.00 90 1014.3
20220522072650 82 155 7.0 14.0 0.00 0.00 0.00 90 1014.3
20220522072549 82 183 8.0 14.0 0.00 0.00 0.00 90 1014.3
20220522072452 82 158 7.0 14.0 0.00 0.00 0.00 90 1014.3
20220522072350 82 171 6.0 14.0 0.00 0.00 0.00 90 1014.2
20220522072249 82 116 6.0 11.0 0.00 0.00 0.00 89 1014.2
20220522072149 82 147 7.0 12.0 0.00 0.00 0.00 89 1014.2
20220522072050 82 161 6.0 12.0 0.00 0.00 0.00 89 1014.3
20220522071949 82 164 6.0 13.0 0.00 0.00 0.00 89 1014.4
20220522071851 82 178 7.0 13.0 0.00 0.00 0.00 89 1014.4
20220522071749 82 135 7.0 13.0 0.00 0.00 0.00 89 1014.5
20220522071653 82 161 6.0 13.0 0.00 0.00 0.00 89 1014.5
20220522071553 82 192 6.0 13.0 0.00 0.00 0.00 89 1014.5
20220522071451 82 164 7.0 13.0 0.00 0.00 0.00 89 1014.5
20220522071351 82 147 7.0 13.0 0.00 0.00 0.00 89 1014.5
20220522071250 82 157 6.0 13.0 0.00 0.00 0.00 89 1014.5
20220522071149 82 166 7.0 13.0 0.00 0.00 0.00 88 1014.5
20220522071049 82 144 8.0 14.0 0.00 0.00 0.00 88 1014.5
20220522070952 82 127 7.0 14.0 0.00 0.00 0.00 88 1014.6
20220522070927 82 161 6.0 14.0 0.00 0.00 0.00 88 1014.6
20220522070751 82 149 6.0 14.0 0.00 0.00 0.00 88 1014.7
20220522070652 82 173 8.0 14.0 0.00 0.00 0.00 88 1014.6
20220522070549 82 168 9.0 14.0 0.00 0.00 0.00 88 1014.6
20220522070449 82 155 7.0 14.0 0.00 0.00 0.00 88 1014.6
20220522070349 82 151 4.0 14.0 0.00 0.00 0.00 89 1014.7
20220522070250 82 171 6.0 14.0 0.00 0.00 0.00 89 1014.7
20220522070149 82 124 7.0 14.0 0.00 0.00 0.00 89 1014.7
20220522070051 82 182 6.0 13.0 0.00 0.00 0.00 89 1014.7
20220522065953 82 152 7.0 13.0 0.00 0.00 0.00 89 1014.8
20220522065851 82 165 7.0 13.0 0.00 0.00 0.00 89 1014.7
20220522065753 82 152 7.0 13.0 0.00 0.00 0.00 89 1014.6
20220522065650 82 135 6.0 12.0 0.00 0.00 0.00 89 1014.7
20220522065549 82 123 6.0 12.0 0.00 0.00 0.00 89 1014.7
20220522065451 82 120 6.0 14.0 0.00 0.00 0.00 89 1014.7
20220522065351 82 151 7.0 14.0 0.00 0.00 0.00 89 1014.8
20220522065249 82 158 7.0 14.0 0.00 0.00 0.00 89 1014.8
20220522065150 82 138 6.0 14.0 0.00 0.00 0.00 89 1014.7
20220522065055 82 96 6.0 14.0 0.00 0.00 0.00 89 1014.8
20220522064949 82 130 6.0 14.0 0.00 0.00 0.00 89 1014.8
20220522064849 82 161 6.0 14.0 0.00 0.00 0.00 89 1014.8
20220522064753 82 99 7.0 14.0 0.00 0.00 0.00 89 1014.8
20220522064653 82 137 8.0 14.0 0.00 0.00 0.00 89 1014.7
20220522064550 82 133 8.0 14.0 0.00 0.00 0.00 89 1014.7
20220522064450 82 144 8.0 13.0 0.00 0.00 0.00 89 1014.7
20220522064353 82 152 7.0 13.0 0.00 0.00 0.00 89 1014.7
20220522064253 82 116 6.0 13.0 0.00 0.00 0.00 89 1014.6
20220522064150 82 154 6.0 14.0 0.00 0.00 0.00 89 1014.6
20220522064049 82 161 6.0 14.0 0.00 0.00 0.00 89 1014.5
20220522063949 82 175 7.0 14.0 0.00 0.00 0.00 89 1014.5
20220522063850 82 144 9.0 14.0 0.00 0.00 0.00 89 1014.5
20220522063749 82 140 7.0 14.0 0.00 0.00 0.00 89 1014.4
20220522063650 81 135 6.0 14.0 0.00 0.00 0.00 90 1014.4
20220522063550 82 151 7.0 14.0 0.00 0.00 0.00 90 1014.4
20220522063449 81 173 7.0 14.0 0.00 0.00 0.00 90 1014.5
20220522063350 82 166 7.0 14.0 0.00 0.00 0.00 90 1014.4
20220522063251 81 149 7.0 14.0 0.00 0.00 0.00 90 1014.4
20220522063149 81 155 8.0 13.0 0.00 0.00 0.00 90 1014.4
20220522063049 82 118 10.0 13.0 0.00 0.00 0.00 90 1014.4
20220522062951 82 161 7.0 13.0 0.00 0.00 0.00 90 1014.4
20220522062849 81 102 5.0 13.0 0.00 0.00 0.00 90 1014.5
20220522062749 82 25 6.0 13.0 0.00 0.00 0.00 90 1014.5
20220522062651 82 121 7.0 13.0 0.00 0.00 0.00 90 1014.6
20220522062550 82 147 7.0 13.0 0.00 0.00 0.00 90 1014.6
20220522062450 82 144 6.0 13.0 0.00 0.00 0.00 90 1014.7
20220522062349 82 154 6.0 13.0 0.00 0.00 0.00 90 1014.6
20220522062253 82 109 7.0 13.0 0.00 0.00 0.00 90 1014.6
20220522062149 82 111 7.0 13.0 0.00 0.00 0.00 90 1014.6
20220522062050 82 104 6.0 13.0 0.00 0.00 0.00 90 1014.7
20220522061952 82 155 6.0 13.0 0.00 0.00 0.00 90 1014.7
20220522061850 82 111 5.0 13.0 0.00 0.00 0.00 90 1014.7
20220522061749 82 140 6.0 13.0 0.00 0.00 0.00 90 1014.7
20220522061650 82 147 6.0 13.0 0.00 0.00 0.00 90 1014.6
20220522061549 82 124 5.0 13.0 0.00 0.00 0.00 90 1014.8
20220522061451 82 133 5.0 13.0 0.00 0.00 0.00 90 1014.9
20220522061350 82 125 6.0 13.0 0.00 0.00 0.00 90 1014.9
20220522061249 82 111 7.0 13.0 0.00 0.00 0.00 90 1015.0
20220522061149 82 117 7.0 13.0 0.00 0.00 0.00 90 1015.0
20220522061051 82 158 7.0 13.0 0.00 0.00 0.00 90 1015.0
20220522060951 82 133 7.0 13.0 0.00 0.00 0.00 90 1015.0
20220522060851 82 124 6.0 13.0 0.00 0.00 0.00 90 1015.1
20220522060750 82 127 6.0 13.0 0.00 0.00 0.00 90 1015.0
20220522060650 82 128 6.0 13.0 0.00 0.00 0.00 90 1015.0
20220522060552 82 130 7.0 13.0 0.00 0.00 0.00 90 1015.0
20220522060453 82 133 7.0 13.0 0.00 0.00 0.00 90 1015.1
20220522060350 82 125 5.0 11.0 0.00 0.00 0.00 90 1015.1
20220522060253 82 179 5.0 10.0 0.00 0.00 0.00 90 1015.2
20220522060150 82 107 6.0 10.0 0.00 0.00 0.00 90 1015.1
20220522060049 82 144 7.0 10.0 0.00 0.00 0.00 90 1015.1
20220522055950 82 151 6.0 10.0 0.00 0.00 0.00 90 1015.2
20220522055855 82 162 5.0 10.0 0.00 0.00 0.00 90 1015.3
20220522055749 82 103 5.0 10.0 0.00 0.00 0.00 90 1015.2
20220522055649 82 142 6.0 10.0 0.00 0.00 0.00 90 1015.3
20220522055554 82 125 6.0 10.0 0.00 0.00 0.00 90 1015.4
20220522055453 82 157 5.0 9.0 0.00 0.00 0.00 90 1015.4
20220522055352 82 102 5.0 9.0 0.00 0.00 0.00 90 1015.4
20220522055250 82 141 4.0 9.0 0.00 0.00 0.00 90 1015.3
20220522055154 82 118 4.0 9.0 0.00 0.00 0.00 90 1015.4
20220522055049 82 161 5.0 9.0 0.00 0.00 0.00 90 1015.3
20220522054950 82 128 5.0 9.0 0.00 0.00 0.00 90 1015.5
20220522054850 82 121 4.0 9.0 0.00 0.00 0.00 90 1015.3
20220522054750 82 127 4.0 9.0 0.00 0.00 0.00 91 1015.5
20220522054651 82 141 5.0 11.0 0.00 0.00 0.00 90 1015.4
20220522054549 82 127 6.0 11.0 0.00 0.00 0.00 90 1015.4
20220522054451 82 123 5.0 11.0 0.00 0.00 0.00 90 1015.5
20220522054350 82 128 4.0 11.0 0.00 0.00 0.00 90 1015.5
20220522054250 82 114 4.0 11.0 0.00 0.00 0.00 90 1015.5
20220522054150 82 157 3.0 11.0 0.00 0.00 0.00 90 1015.5
20220522054049 82 125 4.0 11.0 0.00 0.00 0.00 90 1015.4
20220522053948 82 114 5.0 11.0 0.00 0.00 0.00 90 1015.4
20220522053850 82 123 7.0 11.0 0.00 0.00 0.00 90 1015.4
20220522053749 82 114 6.0 11.0 0.00 0.00 0.00 90 1015.4
20220522053651 82 131 5.0 10.0 0.00 0.00 0.00 90 1015.4
20220522053550 82 134 6.0 11.0 0.00 0.00 0.00 90 1015.4
20220522053449 82 114 6.0 11.0 0.00 0.00 0.00 90 1015.3
20220522053350 82 121 5.0 11.0 0.00 0.00 0.00 90 1015.3
20220522053249 82 135 5.0 11.0 0.00 0.00 0.00 90 1015.3
20220522053153 82 133 6.0 11.0 0.00 0.00 0.00 90 1015.3
20220522053051 82 107 5.0 11.0 0.00 0.00 0.00 90 1015.3
20220522052950 82 111 5.0 11.0 0.00 0.00 0.00 90 1015.4
20220522052851 82 109 5.0 11.0 0.00 0.00 0.00 90 1015.4
20220522052750 82 134 6.0 11.0 0.00 0.00 0.00 90 1015.3
20220522052649 82 138 6.0 11.0 0.00 0.00 0.00 90 1015.4
20220522052549 82 128 5.0 11.0 0.00 0.00 0.00 90 1015.5
20220522052451 82 123 4.0 12.0 0.00 0.00 0.00 90 1015.6
20220522052348 82 134 4.0 12.0 0.00 0.00 0.00 90 1015.5
20220522052248 82 141 5.0 12.0 0.00 0.00 0.00 90 1015.6
20220522052150 82 90 6.0 12.0 0.00 0.00 0.00 90 1015.5
20220522052050 82 123 6.0 13.0 0.00 0.00 0.00 90 1015.5
20220522051950 82 120 6.0 15.0 0.00 0.00 0.00 90 1015.6
20220522051850 82 117 7.0 15.0 0.00 0.00 0.00 90 1015.6
20220522051749 82 104 7.0 15.0 0.00 0.00 0.00 90 1015.5
20220522051649 82 110 7.0 15.0 0.00 0.00 0.00 90 1015.5
20220522051549 82 107 7.0 15.0 0.00 0.00 0.00 90 1015.6
20220522051450 82 106 8.0 15.0 0.00 0.00 0.00 90 1015.6
20220522051350 82 127 8.0 15.0 0.00 0.00 0.00 90 1015.5
20220522051250 82 100 8.0 15.0 0.00 0.00 0.00 90 1015.6
20220522051150 82 128 9.0 15.0 0.00 0.00 0.00 90 1015.7
20220522051050 82 118 8.0 15.0 0.00 0.00 0.00 90 1015.7
20220522050949 82 124 6.0 11.0 0.00 0.00 0.00 90 1015.8
20220522050852 82 130 6.0 11.0 0.00 0.00 0.00 90 1015.7
20220522050751 82 128 7.0 11.0 0.00 0.00 0.00 90 1015.8
20220522050649 82 121 7.0 11.0 0.00 0.00 0.00 90 1015.7
20220522050550 82 109 5.0 11.0 0.00 0.00 0.00 90 1015.7
20220522050450 82 147 7.0 11.0 0.00 0.00 0.00 90 1015.7
20220522050350 82 113 7.0 11.0 0.00 0.00 0.00 90 1015.7
20220522050249 82 114 5.0 11.0 0.00 0.00 0.00 90 1015.8
20220522050149 82 124 4.0 11.0 0.00 0.00 0.00 90 1015.7
20220522050050 82 114 5.0 11.0 0.00 0.00 0.00 90 1015.7
20220522045951 82 96 7.0 11.0 0.00 0.00 0.00 90 1015.7
20220522045848 82 109 6.0 11.0 0.00 0.00 0.00 90 1015.8
20220522045750 82 165 7.0 11.0 0.00 0.00 0.00 90 1015.7
20220522045649 82 133 8.0 11.0 0.00 0.00 0.00 90 1015.7
20220522045550 82 113 7.0 10.0 0.00 0.00 0.00 90 1015.7
20220522045448 82 117 7.0 10.0 0.00 0.00 0.00 90 1015.7
20220522045354 82 137 6.0 12.0 0.00 0.00 0.00 90 1015.7
20220522045249 82 118 6.0 12.0 0.00 0.00 0.00 89 1015.7
20220522045149 82 104 6.0 12.0 0.00 0.00 0.00 89 1015.6
20220522045049 82 107 7.0 12.0 0.00 0.00 0.00 89 1015.6
20220522044952 82 111 7.0 12.0 0.00 0.00 0.00 89 1015.7
20220522044849 82 137 6.0 12.0 0.00 0.00 0.00 89 1015.7
20220522044749 82 120 6.0 12.0 0.00 0.00 0.00 89 1015.7
20220522044650 82 121 6.0 12.0 0.00 0.00 0.00 89 1015.6
20220522044550 82 104 7.0 12.0 0.00 0.00 0.00 89 1015.7
20220522044449 82 104 8.0 12.0 0.00 0.00 0.00 89 1015.7
20220522044353 82 116 8.0 13.0 0.00 0.00 0.00 89 1015.9
20220522044248 82 121 7.0 13.0 0.00 0.00 0.00 89 1015.9
20220522044149 82 141 6.0 13.0 0.00 0.00 0.00 89 1015.8
20220522044051 82 114 6.0 13.0 0.00 0.00 0.00 89 1015.7
20220522043950 82 123 5.0 13.0 0.00 0.00 0.00 89 1015.8
20220522043851 82 133 4.0 13.0 0.00 0.00 0.00 90 1015.8
20220522043749 82 116 4.0 13.0 0.00 0.00 0.00 90 1015.7
20220522043653 82 120 5.0 13.0 0.00 0.00 0.00 90 1015.7
20220522043552 82 178 6.0 13.0 0.00 0.00 0.00 90 1015.7
20220522043449 82 147 6.0 13.0 0.00 0.00 0.00 90 1015.9
20220522043352 82 138 4.0 10.0 0.00 0.00 0.00 90 1015.8
20220522043250 82 135 3.0 10.0 0.00 0.00 0.00 90 1015.8
20220522043149 82 165 4.0 10.0 0.00 0.00 0.00 90 1015.7
20220522043050 82 125 5.0 11.0 0.00 0.00 0.00 90 1015.7
20220522043000 82 116 4.0 11.0 0.00 0.00 0.00 90 1015.7
20220522042849 82 130 4.0 12.0 0.00 0.00 0.00 90 1015.7
20220522042749 82 141 5.0 12.0 0.00 0.00 0.00 90 1015.6
20220522042651 82 109 5.0 12.0 0.00 0.00 0.00 90 1015.7
20220522042550 82 110 5.0 12.0 0.00 0.00 0.00 90 1015.7
20220522042450 82 124 6.0 12.0 0.00 0.00 0.00 90 1015.7
20220522042350 82 114 6.0 12.0 0.00 0.00 0.00 90 1015.6
20220522042249 82 159 6.0 15.0 0.00 0.00 0.00 90 1015.7
20220522042149 82 133 6.0 15.0 0.00 0.00 0.00 90 1015.7
20220522042050 82 114 5.0 15.0 0.00 0.00 0.00 90 1015.6
20220522041951 82 135 5.0 15.0 0.00 0.00 0.00 90 1015.6
20220522041849 82 89 4.0 15.0 0.00 0.00 0.00 90 1015.6
20220522041749 82 116 6.0 15.0 0.00 0.00 0.00 90 1015.6
20220522041651 82 151 7.0 15.0 0.00 0.00 0.00 90 1015.5
20220522041550 82 120 7.0 15.0 0.00 0.00 0.00 90 1015.6
20220522041450 82 110 8.0 15.0 0.00 0.00 0.00 90 1015.4
20220522041350 82 124 7.0 15.0 0.00 0.00 0.00 90 1015.5
20220522041253 82 90 5.0 10.0 0.00 0.00 0.00 90 1015.4
20220522041151 82 120 5.0 10.0 0.00 0.00 0.00 90 1015.4
20220522041049 82 118 6.0 10.0 0.00 0.00 0.00 90 1015.3
20220522040958 82 109 5.0 11.0 0.00 0.00 0.00 90 1015.3
20220522040849 82 161 5.0 11.0 0.00 0.00 0.00 90 1015.2
20220522040749 82 97 6.0 11.0 0.00 0.00 0.00 90 1015.2
20220522040652 82 164 5.0 11.0 0.00 0.00 0.00 90 1015.1
20220522040549 82 147 6.0 12.0 0.00 0.00 0.00 90 1015.1
20220522040448 82 121 6.0 12.0 0.00 0.00 0.00 90 1015.0
20220522040349 82 166 5.0 13.0 0.00 0.00 0.00 89 1015.0
20220522040249 82 124 5.0 13.0 0.00 0.00 0.00 89 1015.0
20220522040149 82 135 6.0 13.0 0.00 0.00 0.00 89 1015.0
20220522040051 83 135 7.0 13.0 0.00 0.00 0.00 89 1015.0
20220522035950 83 118 6.0 13.0 0.00 0.00 0.00 89 1015.0
20220522035851 83 157 6.0 13.0 0.00 0.00 0.00 89 1015.0
20220522035750 83 117 7.0 13.0 0.00 0.00 0.00 89 1015.0
20220522035649 83 133 8.0 13.0 0.00 0.00 0.00 89 1015.0
20220522035552 83 100 9.0 13.0 0.00 0.00 0.00 89 1014.9
20220522035450 83 154 9.0 13.0 0.00 0.00 0.00 89 1014.9
20220522035349 83 157 8.0 13.0 0.00 0.00 0.00 89 1014.9
20220522035249 83 121 6.0 12.0 0.00 0.00 0.00 89 1014.9
20220522035149 83 114 6.0 12.0 0.00 0.00 0.00 89 1014.8
20220522035048 83 118 6.0 12.0 0.00 0.00 0.00 89 1014.8
20220522034951 83 125 7.0 12.0 0.00 0.00 0.00 89 1014.8
20220522034853 83 133 8.0 12.0 0.00 0.00 0.00 89 1014.7
20220522034749 83 118 8.0 12.0 0.00 0.00 0.00 89 1014.7
20220522034649 83 144 7.0 12.0 0.00 0.00 0.00 89 1014.7
20220522034549 83 137 6.0 12.0 0.00 0.00 0.00 89 1014.7
20220522034450 83 137 6.0 13.0 0.00 0.00 0.00 89 1014.7
20220522034349 83 135 6.0 13.0 0.00 0.00 0.00 89 1014.7
20220522034253 83 125 8.0 13.0 0.00 0.00 0.00 89 1014.7
20220522034150 83 102 6.0 13.0 0.00 0.00 0.00 89 1014.6
20220522034049 83 96 6.0 13.0 0.00 0.00 0.00 89 1014.5
20220522033949 83 99 6.0 13.0 0.00 0.00 0.00 89 1014.6
20220522033853 83 164 7.0 14.0 0.00 0.00 0.00 89 1014.5
20220522033750 83 124 8.0 14.0 0.00 0.00 0.00 89 1014.5
20220522033649 83 141 8.0 14.0 0.00 0.00 0.00 89 1014.5
20220522033549 83 130 8.0 14.0 0.00 0.00 0.00 89 1014.5
20220522033449 83 159 8.0 14.0 0.00 0.00 0.00 89 1014.6
20220522033351 83 127 6.0 14.0 0.00 0.00 0.00 89 1014.6
20220522033249 83 103 6.0 14.0 0.00 0.00 0.00 89 1014.6
20220522033150 83 147 7.0 14.0 0.00 0.00 0.00 89 1014.6
20220522033049 83 128 8.0 14.0 0.00 0.00 0.00 89 1014.6
20220522032949 83 128 9.0 14.0 0.00 0.00 0.00 89 1014.7
20220522032850 82 157 8.0 14.0 0.00 0.00 0.00 89 1014.7
20220522032749 82 117 7.0 14.0 0.00 0.00 0.00 89 1014.6
20220522032649 83 192 7.0 14.0 0.00 0.00 0.00 89 1014.6
20220522032550 83 131 7.0 14.0 0.00 0.00 0.00 89 1014.6
20220522032449 82 131 7.0 14.0 0.00 0.00 0.00 89 1014.6
20220522032350 82 120 7.0 14.0 0.00 0.00 0.00 89 1014.6
20220522032250 82 117 9.0 14.0 0.00 0.00 0.00 89 1014.6
20220522032150 82 140 7.0 14.0 0.00 0.00 0.00 89 1014.6
20220522032052 82 97 7.0 14.0 0.00 0.00 0.00 89 1014.6
20220522031951 82 100 8.0 14.0 0.00 0.00 0.00 89 1014.5
20220522031850 82 121 6.0 14.0 0.00 0.00 0.00 90 1014.6
20220522031750 82 116 6.0 14.0 0.00 0.00 0.00 90 1014.5
20220522031649 82 109 8.0 14.0 0.00 0.00 0.00 90 1014.5
20220522031548 82 110 9.0 14.0 0.00 0.00 0.00 90 1014.5
20220522031454 82 99 7.0 14.0 0.00 0.00 0.00 90 1014.4
20220522031353 82 103 7.0 14.0 0.00 0.00 0.00 90 1014.4
20220522031249 82 94 7.0 14.0 0.00 0.00 0.00 90 1014.4
20220522031151 82 145 8.0 14.0 0.00 0.00 0.00 90 1014.4
20220522031049 82 155 8.0 14.0 0.00 0.00 0.00 90 1014.4
20220522030953 82 116 6.0 13.0 0.00 0.00 0.00 90 1014.4
20220522030851 82 109 6.0 13.0 0.00 0.00 0.00 90 1014.5
20220522030751 82 118 7.0 13.0 0.00 0.00 0.00 90 1014.6
20220522030649 82 111 9.0 13.0 0.00 0.00 0.00 90 1014.6
20220522030547 82 114 8.0 12.0 0.00 0.00 0.00 90 1014.5
20220522030447 82 133 8.0 13.0 0.00 0.00 0.00 90 1014.5
20220522030346 82 144 6.0 16.0 0.00 0.00 0.00 90 1014.5
20220522030245 82 117 6.0 16.0 0.00 0.00 0.00 90 1014.5
20220522030141 82 109 7.0 16.0 0.00 0.00 0.00 90 1014.4
20220522030040 82 154 9.0 16.0 0.00 0.00 0.00 90 1014.4
20220522025941 82 123 7.0 16.0 0.00 0.00 0.00 90 1014.4
20220522025839 82 113 6.0 17.0 0.00 0.00 0.00 90 1014.3
20220522025736 82 116 7.0 17.0 0.00 0.00 0.00 90 1014.3
20220522025635 82 106 9.0 17.0 0.00 0.00 0.00 90 1014.3
20220522025533 82 131 9.0 17.0 0.00 0.00 0.00 90 1014.3
20220522025432 82 114 7.0 17.0 0.00 0.00 0.00 90 1014.3
20220522025331 82 102 6.0 17.0 0.00 0.00 0.00 90 1014.3
20220522025229 82 114 7.0 17.0 0.00 0.00 0.00 90 1014.2
20220522025127 82 173 9.0 17.0 0.00 0.00 0.00 90 1014.2
20220522025028 82 106 11.0 17.0 0.00 0.00 0.00 90 1014.1
20220522024927 82 121 9.0 17.0 0.00 0.00 0.00 90 1014.1
20220522024822 82 116 8.0 15.0 0.00 0.00 0.00 90 1014.1
20220522024721 82 130 8.0 15.0 0.00 0.00 0.00 90 1014.0
20220522024619 82 97 7.0 15.0 0.00 0.00 0.00 90 1014.0
20220522024519 82 89 8.0 15.0 0.00 0.00 0.00 90 1014.0
20220522024418 82 120 9.0 15.0 0.00 0.00 0.00 90 1014.0
20220522024319 82 118 10.0 15.0 0.00 0.00 0.00 90 1014.1
20220522024220 82 127 10.0 15.0 0.00 0.00 0.00 90 1014.0
20220522024119 82 118 9.0 13.0 0.00 0.00 0.00 90 1014.0
20220522024020 82 114 6.0 14.0 0.00 0.00 0.00 90 1014.0
20220522023921 82 134 6.0 14.0 0.00 0.00 0.00 90 1013.9
20220522023818 82 125 7.0 15.0 0.00 0.00 0.00 90 1014.0
20220522023718 82 120 8.0 15.0 0.00 0.00 0.00 90 1013.9
20220522023620 82 116 9.0 15.0 0.00 0.00 0.00 90 1014.0
20220522023518 82 140 9.0 15.0 0.00 0.00 0.00 90 1014.0
20220522023418 82 135 8.0 15.0 0.00 0.00 0.00 90 1014.1
20220522023319 82 104 7.0 15.0 0.00 0.00 0.00 90 1014.1
20220522023218 82 118 9.0 15.0 0.00 0.00 0.00 90 1014.1
20220522023118 82 116 9.0 15.0 0.00 0.00 0.00 90 1014.1
20220522023020 82 118 10.0 15.0 0.00 0.00 0.00 90 1014.1
20220522022917 82 120 8.0 15.0 0.00 0.00 0.00 90 1014.0
20220522022820 82 123 7.0 13.0 0.00 0.00 0.00 90 1014.0
20220522022719 82 127 9.0 13.0 0.00 0.00 0.00 90 1014.0
20220522022619 82 104 9.0 13.0 0.00 0.00 0.00 90 1013.9
20220522022519 82 120 9.0 13.0 0.00 0.00 0.00 90 1014.0
20220522022418 82 114 8.0 13.0 0.00 0.00 0.00 90 1014.0
20220522022320 82 110 8.0 13.0 0.00 0.00 0.00 89 1014.0
20220522022219 82 120 8.0 13.0 0.00 0.00 0.00 89 1014.0
20220522022118 82 123 8.0 13.0 0.00 0.00 0.00 89 1013.9
20220522022018 82 99 7.0 13.0 0.00 0.00 0.00 89 1014.0
20220522021921 82 118 7.0 13.0 0.00 0.00 0.00 89 1013.9
20220522021818 82 121 8.0 13.0 0.00 0.00 0.00 89 1013.9
20220522021719 82 104 8.0 13.0 0.00 0.00 0.00 89 1013.9
20220522021618 82 131 8.0 13.0 0.00 0.00 0.00 89 1013.9
20220522021518 82 142 9.0 14.0 0.00 0.00 0.00 89 1013.9
20220522021417 82 166 9.0 14.0 0.00 0.00 0.00 89 1013.9
20220522021317 82 137 8.0 14.0 0.00 0.00 0.00 89 1014.0
20220522021217 82 124 7.0 14.0 0.00 0.00 0.00 89 1013.9
20220522021118 83 130 6.0 14.0 0.00 0.00 0.00 89 1013.8
20220522021017 83 113 7.0 14.0 0.00 0.00 0.00 89 1013.9
20220522020921 83 127 8.0 14.0 0.00 0.00 0.00 89 1013.9
20220522020817 83 144 9.0 14.0 0.00 0.00 0.00 89 1013.9
20220522020717 83 141 9.0 14.0 0.00 0.00 0.00 89 1013.9
20220522020618 83 182 8.0 14.0 0.00 0.00 0.00 89 1013.9
20220522020517 83 131 6.0 15.0 0.00 0.00 0.00 89 1013.8
20220522020417 83 118 6.0 15.0 0.00 0.00 0.00 89 1013.9
20220522020319 83 140 5.0 15.0 0.00 0.00 0.00 89 1013.9
20220522020220 83 142 6.0 15.0 0.00 0.00 0.00 89 1013.9
20220522020118 83 178 8.0 15.0 0.00 0.00 0.00 89 1013.9
20220522020017 83 144 9.0 15.0 0.00 0.00 0.00 89 1013.9
20220522015917 83 124 7.0 15.0 0.00 0.00 0.00 89 1013.9
20220522015818 83 106 9.0 15.0 0.00 0.00 0.00 89 1013.9
20220522015718 83 113 10.0 15.0 0.00 0.00 0.00 89 1013.8
20220522015617 83 117 9.0 15.0 0.00 0.00 0.00 89 1013.9
20220522015517 83 120 9.0 13.0 0.00 0.00 0.00 89 1013.9
20220522015418 83 137 9.0 13.0 0.00 0.00 0.00 89 1013.9
20220522015317 83 106 9.0 13.0 0.00 0.00 0.00 89 1013.9
20220522015217 83 128 9.0 13.0 0.00 0.00 0.00 89 1014.0
20220522015119 83 125 6.0 12.0 0.00 0.00 0.00 89 1014.0
20220522015020 83 107 4.0 10.0 0.00 0.00 0.00 89 1014.0
20220522014917 83 147 5.0 10.0 0.00 0.00 0.00 89 1014.1
20220522014818 83 140 6.0 10.0 0.00 0.00 0.00 89 1014.1
20220522014717 83 114 7.0 12.0 0.00 0.00 0.00 89 1014.1
20220522014618 83 110 6.0 12.0 0.00 0.00 0.00 89 1014.1
20220522014520 83 118 5.0 12.0 0.00 0.00 0.00 89 1014.2
20220522014418 83 117 6.0 12.0 0.00 0.00 0.00 89 1014.2
20220522014316 83 96 6.0 14.0 0.00 0.00 0.00 89 1014.2
20220522014216 83 154 5.0 14.0 0.00 0.00 0.00 89 1014.1
20220522014117 83 176 5.0 14.0 0.00 0.00 0.00 89 1014.1
20220522014018 83 131 5.0 14.0 0.00 0.00 0.00 89 1014.1
20220522013917 83 121 6.0 14.0 0.00 0.00 0.00 89 1014.0
20220522013816 83 135 6.0 14.0 0.00 0.00 0.00 89 1014.0
20220522013717 83 96 6.0 17.0 0.00 0.00 0.00 89 1014.0
20220522013616 83 123 6.0 17.0 0.00 0.00 0.00 89 1014.0
20220522013516 83 106 8.0 17.0 0.00 0.00 0.00 89 1013.9
20220522013418 83 121 10.0 17.0 0.00 0.00 0.00 89 1013.9
20220522013317 83 97 8.0 17.0 0.00 0.00 0.00 89 1013.9
20220522013216 83 116 8.0 17.0 0.00 0.00 0.00 89 1013.9
20220522013117 83 107 8.0 17.0 0.00 0.00 0.00 89 1013.8
20220522013021 83 113 9.0 17.0 0.00 0.00 0.00 89 1013.7
20220522012917 83 127 9.0 17.0 0.00 0.00 0.00 89 1013.7
20220522012818 83 131 9.0 17.0 0.00 0.00 0.00 89 1013.7
20220522012716 83 104 9.0 17.0 0.00 0.00 0.00 89 1013.7
20220522012619 83 116 7.0 17.0 0.00 0.00 0.00 89 1013.7
20220522012516 83 114 7.0 17.0 0.00 0.00 0.00 89 1013.6
20220522012416 83 114 9.0 17.0 0.00 0.00 0.00 89 1013.7
20220522012317 83 121 9.0 17.0 0.00 0.00 0.00 89 1013.7
20220522012217 83 114 9.0 17.0 0.00 0.00 0.00 89 1013.7
20220522012116 83 116 11.0 17.0 0.00 0.00 0.00 89 1013.7
20220522012019 83 130 11.0 17.0 0.00 0.00 0.00 89 1013.6
20220522011916 83 114 10.0 17.0 0.00 0.00 0.00 89 1013.7
20220522011818 83 117 9.0 15.0 0.00 0.00 0.00 89 1013.7
20220522011717 83 99 10.0 15.0 0.00 0.00 0.00 89 1013.6
20220522011619 83 149 11.0 15.0 0.00 0.00 0.00 89 1013.6
20220522011519 83 110 10.0 15.0 0.00 0.00 0.00 89 1013.6
20220522011417 83 117 8.0 14.0 0.00 0.00 0.00 89 1013.6
20220522011319 83 110 8.0 13.0 0.00 0.00 0.00 89 1013.6
20220522011219 83 110 7.0 13.0 0.00 0.00 0.00 89 1013.5
20220522011117 83 151 8.0 14.0 0.00 0.00 0.00 89 1013.5
20220522011021 83 109 8.0 14.0 0.00 0.00 0.00 89 1013.5
20220522010917 83 114 8.0 14.0 0.00 0.00 0.00 88 1013.5
20220522010816 83 114 8.0 14.0 0.00 0.00 0.00 88 1013.5
20220522010716 83 135 7.0 15.0 0.00 0.00 0.00 88 1013.4
20220522010617 83 100 9.0 15.0 0.00 0.00 0.00 88 1013.4
20220522010516 83 130 9.0 15.0 0.00 0.00 0.00 88 1013.4
20220522010416 83 114 9.0 15.0 0.00 0.00 0.00 88 1013.4
20220522010320 83 93 9.0 15.0 0.00 0.00 0.00 88 1013.4
20220522010216 83 128 8.0 15.0 0.00 0.00 0.00 88 1013.3
20220522010116 83 111 9.0 15.0 0.00 0.00 0.00 88 1013.3
20220522010015 83 103 10.0 15.0 0.00 0.00 0.00 88 1013.3
20220522005918 83 134 11.0 16.0 0.00 0.00 0.00 87 1013.2
20220522005817 83 140 11.0 16.0 0.00 0.00 0.00 87 1013.2
20220522005716 83 120 8.0 16.0 0.00 0.00 0.00 87 1013.2
20220522005616 83 121 6.0 16.0 0.00 0.00 0.00 87 1013.2
20220522005517 83 116 6.0 16.0 0.00 0.00 0.00 87 1013.3
20220522005418 83 128 7.0 16.0 0.00 0.00 0.00 87 1013.2
20220522005317 83 118 8.0 16.0 0.00 0.00 0.00 87 1013.3
20220522005217 83 131 9.0 16.0 0.00 0.00 0.00 87 1013.3
20220522005115 83 116 10.0 16.0 0.00 0.00 0.00 87 1013.3
20220522005017 83 147 11.0 16.0 0.00 0.00 0.00 87 1013.3
20220522004916 83 128 9.0 15.0 0.00 0.00 0.00 87 1013.3
20220522004816 83 118 8.0 15.0 0.00 0.00 0.00 87 1013.4
20220522004715 83 113 9.0 15.0 0.00 0.00 0.00 87 1013.4
20220522004615 83 106 9.0 15.0 0.00 0.00 0.00 87 1013.3
20220522004520 83 114 9.0 16.0 0.00 0.00 0.00 87 1013.3
20220522004416 83 97 9.0 16.0 0.00 0.00 0.00 87 1013.4
20220522004316 84 141 10.0 17.0 0.00 0.00 0.00 87 1013.3
20220522004218 84 175 9.0 17.0 0.00 0.00 0.00 87 1013.3
20220522004116 84 121 7.0 17.0 0.00 0.00 0.00 87 1013.3
20220522004015 83 130 8.0 17.0 0.00 0.00 0.00 87 1013.3
20220522003915 83 151 9.0 17.0 0.00 0.00 0.00 87 1013.3
20220522003817 84 114 10.0 17.0 0.00 0.00 0.00 87 1013.3
20220522003715 84 124 10.0 17.0 0.00 0.00 0.00 87 1013.2
20220522003615 84 104 11.0 17.0 0.00 0.00 0.00 87 1013.2
20220522003517 84 114 11.0 17.0 0.00 0.00 0.00 87 1013.1
20220522003419 84 90 9.0 17.0 0.00 0.00 0.00 87 1013.2
20220522003315 84 99 8.0 13.0 0.00 0.00 0.00 87 1013.1
20220522003215 84 130 9.0 13.0 0.00 0.00 0.00 87 1013.1
20220522003116 84 113 7.0 13.0 0.00 0.00 0.00 87 1013.0
20220522003015 84 159 6.0 13.0 0.00 0.00 0.00 87 1013.0
20220522002917 84 157 6.0 13.0 0.00 0.00 0.00 87 1012.9
20220522002815 84 113 6.0 13.0 0.00 0.00 0.00 87 1013.0
20220522002714 84 113 6.0 17.0 0.00 0.00 0.00 87 1012.9
20220522002615 84 104 7.0 17.0 0.00 0.00 0.00 87 1012.9
20220522002515 84 155 8.0 17.0 0.00 0.00 0.00 87 1012.9
20220522002415 84 137 8.0 17.0 0.00 0.00 0.00 87 1012.9
20220522002315 84 140 8.0 17.0 0.00 0.00 0.00 86 1012.9
20220522002215 84 172 9.0 17.0 0.00 0.00 0.00 87 1012.8
20220522002117 84 94 9.0 17.0 0.00 0.00 0.00 87 1012.8
20220522002014 84 172 8.0 17.0 0.00 0.00 0.00 87 1012.7
20220522001915 84 138 9.0 17.0 0.00 0.00 0.00 87 1012.7
20220522001819 84 111 10.0 17.0 0.00 0.00 0.00 87 1012.7
20220522001716 84 99 8.0 16.0 0.00 0.00 0.00 87 1012.7
20220522001614 84 123 8.0 16.0 0.00 0.00 0.00 87 1012.8
20220522001514 84 103 11.0 16.0 0.00 0.00 0.00 86 1012.7
20220522001417 84 123 12.0 16.0 0.00 0.00 0.00 86 1012.7
20220522001318 84 107 11.0 16.0 0.00 0.00 0.00 86 1012.6
20220522001214 84 113 10.0 16.0 0.00 0.00 0.00 86 1012.6
20220522001115 84 111 9.0 16.0 0.00 0.00 0.00 86 1012.6
20220522001014 84 166 10.0 16.0 0.00 0.00 0.00 86 1012.5
20220522000915 84 130 10.0 16.0 0.00 0.00 0.00 86 1012.4
20220522000815 84 87 11.0 16.0 0.00 0.00 0.00 86 1012.5
20220522000717 84 116 10.0 16.0 0.00 0.00 0.00 86 1012.5
20220522000614 84 103 9.0 16.0 0.00 0.00 0.00 86 1012.4
20220522000515 84 111 10.0 16.0 0.00 0.00 0.00 86 1012.5
20220522000415 84 113 10.0 16.0 0.00 0.00 0.00 86 1012.6
20220522000315 84 114 10.0 16.0 0.00 0.00 0.00 86 1012.6
20220522000216 84 106 11.0 16.0 0.00 0.00 0.00 86 1012.6
20220522000116 84 123 10.0 17.0 0.00 0.00 0.00 86 1012.6
20220522000016 84 118 8.0 17.0 0.00 0.00 0.00 86 1012.7
20220521235915 84 145 8.0 17.0 0.00 0.00 0.00 86 1012.6
20220521235815 84 109 9.0 17.0 0.00 0.00 0.00 86 1012.6
20220521235716 84 97 8.0 17.0 0.00 0.00 0.00 86 1012.6
20220521235615 84 185 8.0 17.0 0.00 0.00 0.00 86 1012.5
20220521235515 84 104 9.0 17.0 0.00 0.00 0.00 85 1012.5
20220521235414 84 130 9.0 17.0 0.00 0.00 0.00 85 1012.5
20220521235314 84 157 11.0 17.0 0.00 0.00 0.00 85 1012.5
20220521235214 84 125 13.0 17.0 0.00 0.00 0.00 85 1012.4
20220521235114 85 118 11.0 16.0 0.00 0.00 0.00 85 1012.4
20220521235015 85 137 10.0 14.0 0.00 0.00 0.00 85 1012.4
20220521234914 85 168 9.0 14.0 0.00 0.00 0.00 85 1012.4
20220521234814 85 110 9.0 14.0 0.00 0.00 0.00 84 1012.5
20220521234714 85 114 10.0 14.0 0.00 0.00 0.00 84 1012.5
20220521234616 85 104 9.0 14.0 0.00 0.00 0.00 85 1012.5
20220521234514 85 113 7.0 14.0 0.00 0.00 0.00 85 1012.5
20220521234414 85 166 7.0 14.0 0.00 0.00 0.00 85 1012.5
20220521234314 85 142 8.0 14.0 0.00 0.00 0.00 85 1012.5
20220521234218 85 103 8.0 14.0 0.00 0.00 0.00 85 1012.4
20220521234116 85 120 6.0 14.0 0.00 0.00 0.00 85 1012.3
20220521234014 85 109 7.0 14.0 0.00 0.00 0.00 85 1012.4
20220521233916 85 123 8.0 14.0 0.00 0.00 0.00 85 1012.3
20220521233817 85 134 8.0 16.0 0.00 0.00 0.00 84 1012.3
20220521233713 85 133 7.0 16.0 0.00 0.00 0.00 84 1012.3
20220521233616 85 128 5.0 16.0 0.00 0.00 0.00 85 1012.3
20220521233514 85 145 6.0 16.0 0.00 0.00 0.00 84 1012.3
20220521233415 85 123 7.0 16.0 0.00 0.00 0.00 84 1012.3
20220521233314 85 114 7.0 16.0 0.00 0.00 0.00 84 1012.3
20220521233215 85 164 8.0 16.0 0.00 0.00 0.00 84 1012.2
20220521233115 85 114 10.0 16.0 0.00 0.00 0.00 84 1012.3
20220521233013 85 117 11.0 16.0 0.00 0.00 0.00 83 1012.2
20220521232914 85 142 10.0 16.0 0.00 0.00 0.00 83 1012.2
20220521232814 85 104 8.0 15.0 0.00 0.00 0.00 83 1012.3
20220521232715 85 124 7.0 17.0 0.00 0.00 0.00 83 1012.2
20220521232614 85 104 7.0 17.0 0.00 0.00 0.00 83 1012.1
20220521232516 85 137 7.0 17.0 0.00 0.00 0.00 83 1012.0
20220521232413 85 175 8.0 17.0 0.00 0.00 0.00 83 1012.0
20220521232314 85 123 9.0 17.0 0.00 0.00 0.00 83 1012.0
20220521232216 85 157 8.0 17.0 0.00 0.00 0.00 83 1012.0
20220521232113 85 151 9.0 19.0 0.00 0.00 0.00 83 1012.0
20220521232014 85 113 11.0 19.0 0.00 0.00 0.00 83 1012.0
20220521231914 85 158 11.0 19.0 0.00 0.00 0.00 83 1012.0
20220521231813 85 106 9.0 19.0 0.00 0.00 0.00 83 1012.0
20220521231713 85 120 9.0 19.0 0.00 0.00 0.00 83 1012.0
20220521231613 85 148 10.0 19.0 0.00 0.00 0.00 83 1012.0
20220521231517 85 138 10.0 19.0 0.00 0.00 0.00 83 1012.0
20220521231413 85 134 9.0 19.0 0.00 0.00 0.00 83 1012.0
20220521231313 85 116 10.0 19.0 0.00 0.00 0.00 83 1011.9
20220521231213 85 142 8.0 19.0 0.00 0.00 0.00 83 1011.9
20220521231113 85 114 9.0 18.0 0.00 0.00 0.00 83 1012.0
20220521231013 85 131 12.0 18.0 0.00 0.00 0.00 83 1012.0
20220521230913 85 110 11.0 18.0 0.00 0.00 0.00 83 1012.0
20220521230815 85 123 9.0 17.0 0.00 0.00 0.00 83 1012.0
20220521230713 85 138 9.0 17.0 0.00 0.00 0.00 83 1012.0
20220521230613 85 124 6.0 17.0 0.00 0.00 0.00 83 1012.0
20220521230515 85 110 7.0 17.0 0.00 0.00 0.00 83 1012.0
20220521230414 85 113 10.0 17.0 0.00 0.00 0.00 83 1012.0
20220521230314 85 159 11.0 17.0 0.00 0.00 0.00 83 1012.0
20220521230213 85 142 9.0 17.0 0.00 0.00 0.00 83 1012.0
20220521230116 85 172 8.0 17.0 0.00 0.00 0.00 83 1012.0
20220521230013 85 171 7.0 17.0 0.00 0.00 0.00 83 1012.0
20220521225913 85 151 7.0 17.0 0.00 0.00 0.00 83 1012.1
20220521225813 85 165 9.0 17.0 0.00 0.00 0.00 83 1012.0
20220521225717 85 120 9.0 17.0 0.00 0.00 0.00 83 1011.9
20220521225614 85 113 10.0 17.0 0.00 0.00 0.00 83 1012.0
20220521225513 85 159 10.0 17.0 0.00 0.00 0.00 83 1012.0
20220521225414 85 134 9.0 16.0 0.00 0.00 0.00 83 1012.1
20220521225312 85 106 9.0 16.0 0.00 0.00 0.00 83 1012.1
20220521225212 85 133 9.0 16.0 0.00 0.00 0.00 83 1012.1
20220521225117 85 154 9.0 16.0 0.00 0.00 0.00 83 1012.1
20220521225014 85 118 9.0 16.0 0.00 0.00 0.00 83 1012.1
20220521224915 85 83 10.0 16.0 0.00 0.00 0.00 82 1012.1
20220521224814 86 121 10.0 16.0 0.00 0.00 0.00 82 1012.0
20220521224718 86 140 10.0 16.0 0.00 0.00 0.00 82 1012.0
20220521224617 86 107 9.0 16.0 0.00 0.00 0.00 82 1012.0
20220521224513 86 120 10.0 16.0 0.00 0.00 0.00 82 1012.0
20220521224413 86 120 10.0 16.0 0.00 0.00 0.00 82 1012.0
20220521224315 86 162 11.0 16.0 0.00 0.00 0.00 82 1012.0
20220521224214 86 169 9.0 16.0 0.00 0.00 0.00 82 1012.1
20220521224113 86 166 9.0 16.0 0.00 0.00 0.00 82 1012.0
20220521224014 86 186 10.0 16.0 0.00 0.00 0.00 82 1012.0
20220521223912 86 138 9.0 16.0 0.00 0.00 0.00 82 1012.1
20220521223813 86 127 8.0 16.0 0.00 0.00 0.00 82 1012.2
20220521223714 86 125 7.0 16.0 0.00 0.00 0.00 82 1012.1
20220521223614 86 104 8.0 16.0 0.00 0.00 0.00 82 1012.1
20220521223512 86 125 8.0 16.0 0.00 0.00 0.00 82 1012.1
20220521223412 86 135 9.0 16.0 0.00 0.00 0.00 82 1012.1
20220521223313 86 158 8.0 16.0 0.00 0.00 0.00 82 1012.2
20220521223212 86 185 6.0 16.0 0.00 0.00 0.00 82 1012.2
20220521223112 86 173 7.0 16.0 0.00 0.00 0.00 82 1012.1
20220521223014 86 113 9.0 16.0 0.00 0.00 0.00 82 1012.2
20220521222912 86 107 9.0 16.0 0.00 0.00 0.00 82 1012.2
20220521222813 86 157 9.0 16.0 0.00 0.00 0.00 82 1012.2
20220521222712 86 142 9.0 17.0 0.00 0.00 0.00 82 1012.3
20220521222612 86 118 9.0 17.0 0.00 0.00 0.00 82 1012.2
20220521222512 86 144 9.0 20.0 0.00 0.00 0.00 82 1012.2
20220521222412 86 110 9.0 20.0 0.00 0.00 0.00 82 1012.3
20220521222314 86 107 10.0 20.0 0.00 0.00 0.00 82 1012.3
20220521222213 86 133 11.0 20.0 0.00 0.00 0.00 82 1012.2
20220521222112 86 137 10.0 20.0 0.00 0.00 0.00 82 1012.3
20220521222013 86 114 11.0 20.0 0.00 0.00 0.00 81 1012.3
20220521221913 86 111 11.0 20.0 0.00 0.00 0.00 81 1012.2
20220521221812 86 111 12.0 20.0 0.00 0.00 0.00 81 1012.3
20220521221711 86 96 15.0 20.0 0.00 0.00 0.00 81 1012.3
20220521221612 86 100 15.0 20.0 0.00 0.00 0.00 81 1012.2
20220521221512 86 111 13.0 20.0 0.00 0.00 0.00 81 1012.3
20220521221416 86 161 13.0 20.0 0.00 0.00 0.00 81 1012.2
20220521221316 86 124 12.0 20.0 0.00 0.00 0.00 81 1012.1
20220521221215 86 100 11.0 19.0 0.00 0.00 0.00 82 1012.1
20220521221112 86 104 12.0 19.0 0.00 0.00 0.00 82 1012.2
20220521221014 86 117 13.0 19.0 0.00 0.00 0.00 81 1012.2
20220521220913 86 144 13.0 19.0 0.00 0.00 0.00 82 1012.2
20220521220811 86 135 15.0 19.0 0.00 0.00 0.00 82 1012.3
20220521220712 86 100 14.0 19.0 0.00 0.00 0.00 81 1012.2
20220521220611 86 102 11.0 18.0 0.00 0.00 0.00 81 1012.2
20220521220513 86 96 10.0 20.0 0.00 0.00 0.00 81 1012.2
20220521220412 86 154 10.0 20.0 0.00 0.00 0.00 81 1012.1
20220521220311 86 154 8.0 20.0 0.00 0.00 0.00 81 1012.2
20220521220216 86 121 9.0 20.0 0.00 0.00 0.00 81 1012.2
20220521220111 86 134 10.0 20.0 0.00 0.00 0.00 82 1012.2
20220521220011 86 131 10.0 20.0 0.00 0.00 0.00 81 1012.2
20220521215915 86 124 10.0 20.0 0.00 0.00 0.00 81 1012.2
20220521215812 86 138 11.0 20.0 0.00 0.00 0.00 81 1012.2
20220521215712 87 138 14.0 20.0 0.00 0.00 0.00 80 1012.3
20220521215611 87 113 15.0 20.0 0.00 0.00 0.00 80 1012.3
20220521215513 87 134 12.0 19.0 0.00 0.00 0.00 80 1012.3
20220521215414 87 127 12.0 19.0 0.00 0.00 0.00 80 1012.2
20220521215310 87 117 14.0 19.0 0.00 0.00 0.00 80 1012.2
20220521215211 87 125 12.0 18.0 0.00 0.00 0.00 80 1012.2
20220521215111 87 138 8.0 17.0 0.00 0.00 0.00 80 1012.3
20220521215012 87 130 7.0 17.0 0.00 0.00 0.00 80 1012.3
20220521214911 87 103 9.0 17.0 0.00 0.00 0.00 80 1012.2
20220521214813 87 182 11.0 17.0 0.00 0.00 0.00 80 1012.2
20220521214711 87 80 10.0 17.0 0.00 0.00 0.00 80 1012.2
20220521214611 87 154 9.0 17.0 0.00 0.00 0.00 80 1012.3
20220521214514 87 151 10.0 17.0 0.00 0.00 0.00 81 1012.3
20220521214414 87 113 10.0 17.0 0.00 0.00 0.00 81 1012.3
20220521214311 87 130 11.0 17.0 0.00 0.00 0.00 81 1012.2
20220521214211 87 116 13.0 17.0 0.00 0.00 0.00 81 1012.3
20220521214111 87 106 11.0 16.0 0.00 0.00 0.00 81 1012.2
20220521214012 87 92 10.0 16.0 0.00 0.00 0.00 81 1012.2
20220521213911 87 111 9.0 22.0 0.00 0.00 0.00 81 1012.3
20220521213815 87 116 8.0 22.0 0.00 0.00 0.00 81 1012.3
20220521213712 87 109 9.0 22.0 0.00 0.00 0.00 80 1012.3
20220521213610 87 121 10.0 22.0 0.00 0.00 0.00 80 1012.4
20220521213511 87 130 9.0 22.0 0.00 0.00 0.00 80 1012.3
20220521213411 87 149 9.0 22.0 0.00 0.00 0.00 80 1012.4
20220521213311 87 114 11.0 22.0 0.00 0.00 0.00 80 1012.4
20220521213211 87 135 11.0 22.0 0.00 0.00 0.00 80 1012.4
20220521213115 87 168 13.0 22.0 0.00 0.00 0.00 80 1012.3
20220521213011 87 162 15.0 22.0 0.00 0.00 0.00 79 1012.4
20220521212912 87 123 15.0 20.0 0.00 0.00 0.00 80 1012.3
20220521212814 87 99 13.0 20.0 0.00 0.00 0.00 80 1012.3
20220521212712 87 96 11.0 20.0 0.00 0.00 0.00 80 1012.2
20220521212610 87 149 11.0 20.0 0.00 0.00 0.00 79 1012.2
20220521212511 88 120 10.0 20.0 0.00 0.00 0.00 79 1012.3
20220521212412 88 144 9.0 20.0 0.00 0.00 0.00 79 1012.3
20220521212312 88 120 11.0 20.0 0.00 0.00 0.00 79 1012.3
20220521212213 88 159 13.0 20.0 0.00 0.00 0.00 79 1012.3
20220521212111 88 124 11.0 18.0 0.00 0.00 0.00 79 1012.3
20220521212011 88 118 9.0 16.0 0.00 0.00 0.00 79 1012.3
20220521211911 88 125 7.0 19.0 0.00 0.00 0.00 80 1012.3
20220521211810 87 149 7.0 19.0 0.00 0.00 0.00 80 1012.3
20220521211712 87 116 7.0 19.0 0.00 0.00 0.00 80 1012.3
20220521211613 87 94 7.0 19.0 0.00 0.00 0.00 80 1012.3
20220521211510 87 159 8.0 20.0 0.00 0.00 0.00 80 1012.3
20220521211414 87 127 8.0 20.0 0.00 0.00 0.00 80 1012.3
20220521211314 87 106 10.0 20.0 0.00 0.00 0.00 80 1012.4
20220521211213 87 145 12.0 20.0 0.00 0.00 0.00 80 1012.4
20220521211110 87 157 13.0 20.0 0.00 0.00 0.00 80 1012.3
20220521211012 87 137 13.0 20.0 0.00 0.00 0.00 80 1012.3
20220521210910 87 130 13.0 20.0 0.00 0.00 0.00 80 1012.3
20220521210810 87 124 14.0 20.0 0.00 0.00 0.00 80 1012.4
20220521210710 87 100 15.0 20.0 0.00 0.00 0.00 80 1012.4
20220521210612 87 99 14.0 20.0 0.00 0.00 0.00 80 1012.4
20220521210511 87 100 11.0 19.0 0.00 0.00 0.00 80 1012.5
20220521210411 87 103 12.0 19.0 0.00 0.00 0.00 80 1012.4
20220521210310 87 130 13.0 19.0 0.00 0.00 0.00 80 1012.5
20220521210212 87 121 14.0 19.0 0.00 0.00 0.00 80 1012.4
20220521210111 87 111 12.0 19.0 0.00 0.00 0.00 80 1012.4
20220521210013 87 109 13.0 19.0 0.00 0.00 0.00 79 1012.3
20220521205910 87 123 14.0 19.0 0.00 0.00 0.00 79 1012.3
20220521205810 87 86 12.0 19.0 0.00 0.00 0.00 79 1012.4
20220521205710 87 147 11.0 19.0 0.00 0.00 0.00 80 1012.4
20220521205615 87 123 11.0 18.0 0.00 0.00 0.00 79 1012.4
20220521205510 87 82 10.0 18.0 0.00 0.00 0.00 80 1012.4
20220521205410 87 116 10.0 20.0 0.00 0.00 0.00 80 1012.4
20220521205314 87 113 11.0 20.0 0.00 0.00 0.00 80 1012.4
20220521205211 87 159 12.0 20.0 0.00 0.00 0.00 80 1012.4
20220521205109 87 121 12.0 20.0 0.00 0.00 0.00 80 1012.5
20220521205010 87 114 12.0 20.0 0.00 0.00 0.00 80 1012.4
20220521204910 87 114 11.0 20.0 0.00 0.00 0.00 80 1012.4
20220521204810 87 140 8.0 20.0 0.00 0.00 0.00 80 1012.4
20220521204709 87 133 9.0 20.0 0.00 0.00 0.00 80 1012.4
20220521204615 87 114 13.0 20.0 0.00 0.00 0.00 80 1012.4
20220521204510 87 120 14.0 20.0 0.00 0.00 0.00 79 1012.5
20220521204409 87 113 11.0 20.0 0.00 0.00 0.00 79 1012.4
20220521204310 87 125 10.0 18.0 0.00 0.00 0.00 79 1012.4
20220521204211 87 117 11.0 18.0 0.00 0.00 0.00 79 1012.4
20220521204111 87 135 10.0 18.0 0.00 0.00 0.00 79 1012.4
20220521204010 87 138 11.0 18.0 0.00 0.00 0.00 79 1012.4
20220521203914 88 155 10.0 18.0 0.00 0.00 0.00 79 1012.3
20220521203811 88 80 9.0 18.0 0.00 0.00 0.00 79 1012.4
20220521203710 87 109 9.0 18.0 0.00 0.00 0.00 79 1012.4
20220521203611 87 135 11.0 18.0 0.00 0.00 0.00 79 1012.4
20220521203510 87 110 12.0 18.0 0.00 0.00 0.00 79 1012.3
20220521203410 87 140 10.0 18.0 0.00 0.00 0.00 79 1012.5
20220521203309 88 116 8.0 17.0 0.00 0.00 0.00 79 1012.5
20220521203209 87 137 7.0 17.0 0.00 0.00 0.00 79 1012.4
20220521203110 87 162 8.0 17.0 0.00 0.00 0.00 79 1012.5
20220521203011 87 180 10.0 17.0 0.00 0.00 0.00 79 1012.5
20220521202913 87 104 10.0 19.0 0.00 0.00 0.00 80 1012.5
20220521202810 87 109 9.0 19.0 0.00 0.00 0.00 80 1012.5
20220521202710 87 166 10.0 19.0 0.00 0.00 0.00 79 1012.5
20220521202624 87 118 10.0 19.0 0.00 0.00 0.00 79 1012.5
20220521202512 87 130 10.0 19.0 0.00 0.00 0.00 79 1012.6
20220521202409 87 141 10.0 19.0 0.00 0.00 0.00 79 1012.6
20220521202311 87 124 10.0 19.0 0.00 0.00 0.00 79 1012.6
20220521202209 87 175 10.0 19.0 0.00 0.00 0.00 79 1012.5
20220521202111 87 110 11.0 19.0 0.00 0.00 0.00 79 1012.7
20220521202009 87 118 9.0 19.0 0.00 0.00 0.00 79 1012.6
20220521201910 87 176 9.0 17.0 0.00 0.00 0.00 79 1012.6
20220521201810 87 144 10.0 17.0 0.00 0.00 0.00 79 1012.6
20220521201709 87 117 10.0 17.0 0.00 0.00 0.00 79 1012.7
20220521201609 87 116 8.0 17.0 0.00 0.00 0.00 80 1012.6
20220521201509 87 166 8.0 17.0 0.00 0.00 0.00 80 1012.6
20220521201410 87 149 9.0 19.0 0.00 0.00 0.00 80 1012.6
20220521201312 87 123 10.0 19.0 0.00 0.00 0.00 80 1012.6
20220521201211 87 66 11.0 19.0 0.00 0.00 0.00 80 1012.6
20220521201113 87 137 13.0 19.0 0.00 0.00 0.00 80 1012.6
20220521201009 87 110 13.0 19.0 0.00 0.00 0.00 80 1012.6
20220521200911 87 104 13.0 19.0 0.00 0.00 0.00 80 1012.6
20220521200811 87 104 13.0 19.0 0.00 0.00 0.00 79 1012.6
20220521200709 87 100 13.0 19.0 0.00 0.00 0.00 79 1012.7
20220521200621 87 130 14.0 19.0 0.00 0.00 0.00 79 1012.6
20220521200509 87 113 13.0 19.0 0.00 0.00 0.00 79 1012.8
20220521200411 87 116 10.0 17.0 0.00 0.00 0.00 79 1012.7
20220521200309 87 142 9.0 17.0 0.00 0.00 0.00 80 1012.8
20220521200210 87 159 9.0 17.0 0.00 0.00 0.00 79 1012.7
20220521200110 87 102 10.0 17.0 0.00 0.00 0.00 79 1012.7
20220521200008 87 133 10.0 17.0 0.00 0.00 0.00 79 1012.8
20220521195910 88 137 12.0 17.0 0.00 0.00 0.00 79 1012.8
20220521195808 88 109 11.0 17.0 0.00 0.00 0.00 78 1012.8
20220521195711 88 97 10.0 15.0 0.00 0.00 0.00 78 1012.8
20220521195610 88 116 10.0 15.0 0.00 0.00 0.00 78 1012.8
20220521195510 89 113 12.0 15.0 0.00 0.00 0.00 77 1012.8
20220521195409 89 107 11.0 15.0 0.00 0.00 0.00 77 1012.8
20220521195309 89 125 9.0 15.0 0.00 0.00 0.00 77 1012.8
20220521195211 89 128 8.0 13.0 0.00 0.00 0.00 77 1012.8
20220521195109 89 134 8.0 14.0 0.00 0.00 0.00 76 1012.7
20220521195010 89 161 9.0 16.0 0.00 0.00 0.00 77 1012.7
20220521194911 89 164 8.0 16.0 0.00 0.00 0.00 77 1012.8
20220521194810 89 94 8.0 16.0 0.00 0.00 0.00 76 1012.8
20220521194708 89 161 7.0 16.0 0.00 0.00 0.00 76 1012.8
20220521194610 89 111 8.0 16.0 0.00 0.00 0.00 76 1012.8
20220521194509 89 121 8.0 16.0 0.00 0.00 0.00 75 1012.7
20220521194413 89 130 7.0 16.0 0.00 0.00 0.00 76 1012.7
20220521194309 89 154 7.0 16.0 0.00 0.00 0.00 75 1012.8
20220521194208 89 162 9.0 16.0 0.00 0.00 0.00 76 1012.8
20220521194109 89 137 11.0 16.0 0.00 0.00 0.00 76 1012.8
20220521194010 89 141 9.0 16.0 0.00 0.00 0.00 75 1012.8
20220521193909 89 107 9.0 16.0 0.00 0.00 0.00 75 1012.8
20220521193808 89 164 8.0 16.0 0.00 0.00 0.00 76 1012.8
20220521193708 89 151 7.0 16.0 0.00 0.00 0.00 75 1012.9
20220521193613 90 158 8.0 16.0 0.00 0.00 0.00 75 1012.8
20220521193509 90 127 10.0 16.0 0.00 0.00 0.00 75 1012.8
20220521193408 89 135 11.0 16.0 0.00 0.00 0.00 76 1012.8
20220521193311 89 161 9.0 15.0 0.00 0.00 0.00 75 1012.8
20220521193211 89 165 9.0 16.0 0.00 0.00 0.00 75 1012.8
20220521193109 89 178 9.0 16.0 0.00 0.00 0.00 76 1012.8
20220521193008 89 144 9.0 16.0 0.00 0.00 0.00 76 1012.8
20220521192908 89 152 9.0 16.0 0.00 0.00 0.00 76 1012.8
20220521192810 89 151 8.0 16.0 0.00 0.00 0.00 75 1012.9
20220521192710 89 165 9.0 16.0 0.00 0.00 0.00 76 1012.9
20220521192608 89 127 9.0 16.0 0.00 0.00 0.00 76 1013.0
20220521192508 89 131 8.0 16.0 0.00 0.00 0.00 76 1013.0
20220521192409 89 131 9.0 16.0 0.00 0.00 0.00 76 1012.9
20220521192308 89 134 10.0 16.0 0.00 0.00 0.00 76 1012.9
20220521192211 89 166 11.0 16.0 0.00 0.00 0.00 76 1013.0
20220521192110 89 111 11.0 16.0 0.00 0.00 0.00 75 1012.9
20220521192008 89 110 9.0 16.0 0.00 0.00 0.00 76 1012.9
20220521191907 89 104 9.0 18.0 0.00 0.00 0.00 76 1012.8
20220521191810 89 113 10.0 18.0 0.00 0.00 0.00 76 1012.9
20220521191709 89 141 9.0 18.0 0.00 0.00 0.00 76 1012.9
20220521191610 89 113 9.0 18.0 0.00 0.00 0.00 76 1012.9
20220521191512 89 130 9.0 18.0 0.00 0.00 0.00 76 1012.9
20220521191408 89 113 9.0 18.0 0.00 0.00 0.00 75 1012.8
20220521191308 89 128 10.0 18.0 0.00 0.00 0.00 75 1012.9
20220521191209 89 135 10.0 18.0 0.00 0.00 0.00 76 1012.9
20220521191107 89 178 11.0 22.0 0.00 0.00 0.00 75 1013.0
20220521191009 89 140 12.0 22.0 0.00 0.00 0.00 75 1012.9
20220521190908 89 109 11.0 22.0 0.00 0.00 0.00 75 1012.9
20220521190809 90 148 10.0 22.0 0.00 0.00 0.00 75 1013.0
20220521190708 89 135 9.0 22.0 0.00 0.00 0.00 75 1012.9
20220521190607 89 195 8.0 22.0 0.00 0.00 0.00 75 1012.9
20220521190509 89 152 9.0 22.0 0.00 0.00 0.00 76 1013.0
20220521190410 89 107 10.0 22.0 0.00 0.00 0.00 76 1012.9
20220521190308 89 162 11.0 22.0 0.00 0.00 0.00 76 1012.9
20220521190210 89 117 11.0 22.0 0.00 0.00 0.00 76 1012.9
20220521190107 89 117 10.0 16.0 0.00 0.00 0.00 76 1013.0
20220521190007 89 141 8.0 17.0 0.00 0.00 0.00 76 1013.1
20220521185910 89 107 7.0 17.0 0.00 0.00 0.00 76 1013.1
20220521185808 89 164 10.0 17.0 0.00 0.00 0.00 76 1013.0
20220521185709 89 173 11.0 17.0 0.00 0.00 0.00 76 1013.2
20220521185608 89 149 10.0 17.0 0.00 0.00 0.00 76 1013.1
20220521185509 89 121 10.0 17.0 0.00 0.00 0.00 75 1013.1
20220521185407 89 118 9.0 18.0 0.00 0.00 0.00 75 1013.2
20220521185307 89 123 10.0 18.0 0.00 0.00 0.00 75 1013.1
20220521185207 89 116 12.0 18.0 0.00 0.00 0.00 76 1013.1
20220521185111 89 164 11.0 18.0 0.00 0.00 0.00 76 1013.2
20220521185007 89 151 11.0 18.0 0.00 0.00 0.00 76 1013.1
20220521184907 89 116 9.0 18.0 0.00 0.00 0.00 76 1013.1
20220521184808 89 147 10.0 18.0 0.00 0.00 0.00 77 1013.2
20220521184710 89 168 10.0 18.0 0.00 0.00 0.00 77 1013.1
20220521184608 89 117 10.0 18.0 0.00 0.00 0.00 76 1013.1
20220521184507 89 118 11.0 18.0 0.00 0.00 0.00 76 1013.1
20220521184407 89 178 9.0 15.0 0.00 0.00 0.00 75 1013.1
20220521184307 89 114 9.0 15.0 0.00 0.00 0.00 75 1013.1
20220521184207 89 135 10.0 17.0 0.00 0.00 0.00 75 1013.1
20220521184107 89 141 9.0 17.0 0.00 0.00 0.00 76 1013.1
20220521184008 89 169 10.0 17.0 0.00 0.00 0.00 76 1013.1
20220521183908 89 166 10.0 17.0 0.00 0.00 0.00 76 1013.1
20220521183809 89 186 8.0 17.0 0.00 0.00 0.00 76 1013.1
20220521183707 89 144 9.0 17.0 0.00 0.00 0.00 75 1013.1
20220521183607 89 113 9.0 17.0 0.00 0.00 0.00 75 1013.1
20220521183507 89 103 9.0 17.0 0.00 0.00 0.00 75 1013.1
20220521183411 89 124 9.0 17.0 0.00 0.00 0.00 75 1013.2
20220521183309 89 158 11.0 17.0 0.00 0.00 0.00 76 1013.0
20220521183208 89 164 11.0 16.0 0.00 0.00 0.00 76 1013.1
20220521183107 89 173 9.0 16.0 0.00 0.00 0.00 77 1013.1
20220521183008 89 117 9.0 16.0 0.00 0.00 0.00 76 1013.1
20220521182909 89 120 10.0 17.0 0.00 0.00 0.00 76 1013.0
20220521182806 89 125 10.0 17.0 0.00 0.00 0.00 76 1013.2
20220521182709 89 149 10.0 17.0 0.00 0.00 0.00 76 1013.1
20220521182606 89 164 11.0 18.0 0.00 0.00 0.00 76 1013.2
20220521182512 89 159 11.0 18.0 0.00 0.00 0.00 77 1013.2
20220521182408 89 169 9.0 18.0 0.00 0.00 0.00 77 1013.1
20220521182308 88 127 8.0 18.0 0.00 0.00 0.00 78 1013.2
20220521182207 88 111 9.0 18.0 0.00 0.00 0.00 77 1013.1
20220521182107 88 113 11.0 18.0 0.00 0.00 0.00 77 1013.1
20220521182008 88 144 11.0 18.0 0.00 0.00 0.00 77 1013.1
20220521181907 89 151 12.0 18.0 0.00 0.00 0.00 77 1013.2
20220521181809 89 147 14.0 18.0 0.00 0.00 0.00 76 1013.2
20220521181706 89 151 14.0 18.0 0.00 0.00 0.00 76 1013.1
20220521181607 89 162 12.0 18.0 0.00 0.00 0.00 75 1013.2
20220521181506 89 172 9.0 16.0 0.00 0.00 0.00 75 1013.1
20220521181406 89 154 10.0 20.0 0.00 0.00 0.00 76 1013.2
20220521181310 89 110 11.0 20.0 0.00 0.00 0.00 76 1013.2
20220521181207 89 165 9.0 20.0 0.00 0.00 0.00 76 1013.0
20220521181107 89 96 10.0 20.0 0.00 0.00 0.00 76 1013.2
20220521181007 89 130 9.0 20.0 0.00 0.00 0.00 76 1013.1
20220521180906 89 176 8.0 20.0 0.00 0.00 0.00 76 1013.1
20220521180816 89 142 8.0 20.0 0.00 0.00 0.00 76 1013.1
20220521180706 89 99 7.0 20.0 0.00 0.00 0.00 77 1013.1
20220521180607 89 100 10.0 20.0 0.00 0.00 0.00 77 1013.1
20220521180508 89 152 11.0 20.0 0.00 0.00 0.00 77 1013.2
20220521180407 88 216 10.0 20.0 0.00 0.00 0.00 77 1013.2
20220521180307 88 147 11.0 20.0 0.00 0.00 0.00 77 1013.2
20220521180206 88 103 9.0 18.0 0.00 0.00 0.00 77 1013.2
20220521180106 88 116 8.0 18.0 0.00 0.00 0.00 77 1013.3
20220521180006 88 154 10.0 18.0 0.00 0.00 0.00 77 1013.2
20220521175908 88 165 11.0 18.0 0.00 0.00 0.00 77 1013.2
20220521175809 88 166 10.0 18.0 0.00 0.00 0.00 77 1013.1
20220521175706 88 169 10.0 16.0 0.00 0.00 0.00 78 1013.2
20220521175607 88 140 9.0 16.0 0.00 0.00 0.00 78 1013.2
20220521175506 88 166 9.0 18.0 0.00 0.00 0.00 78 1013.1
20220521175408 88 80 9.0 18.0 0.00 0.00 0.00 77 1013.1
20220521175306 88 175 8.0 18.0 0.00 0.00 0.00 77 1013.2
20220521175208 88 128 9.0 18.0 0.00 0.00 0.00 77 1013.3
20220521175105 88 155 10.0 18.0 0.00 0.00 0.00 76 1013.3
20220521175007 88 117 11.0 18.0 0.00 0.00 0.00 76 1013.3
20220521174907 88 157 9.0 18.0 0.00 0.00 0.00 76 1013.3
20220521174806 88 118 8.0 18.0 0.00 0.00 0.00 76 1013.3
20220521174705 89 166 10.0 18.0 0.00 0.00 0.00 76 1013.1
20220521174605 89 192 11.0 18.0 0.00 0.00 0.00 77 1013.2
20220521174505 88 161 10.0 18.0 0.00 0.00 0.00 77 1013.3
20220521174405 88 157 12.0 18.0 0.00 0.00 0.00 77 1013.3
20220521174306 88 169 13.0 18.0 0.00 0.00 0.00 77 1013.3
20220521174209 88 144 12.0 18.0 0.00 0.00 0.00 77 1013.2
20220521174109 88 179 9.0 20.0 0.00 0.00 0.00 77 1013.3
20220521174006 88 175 9.0 20.0 0.00 0.00 0.00 77 1013.3
20220521173908 88 123 11.0 20.0 0.00 0.00 0.00 77 1013.3
20220521173806 88 109 11.0 20.0 0.00 0.00 0.00 77 1013.2
20220521173705 88 104 11.0 20.0 0.00 0.00 0.00 78 1013.3
20220521173605 88 116 11.0 20.0 0.00 0.00 0.00 78 1013.3
20220521173509 88 127 10.0 21.0 0.00 0.00 0.00 78 1013.3
20220521173406 88 155 12.0 21.0 0.00 0.00 0.00 78 1013.2
20220521173310 88 102 14.0 21.0 0.00 0.00 0.00 77 1013.2
20220521173207 88 124 13.0 21.0 0.00 0.00 0.00 77 1013.2
20220521173108 88 109 12.0 21.0 0.00 0.00 0.00 77 1013.2
20220521173007 88 144 12.0 21.0 0.00 0.00 0.00 77 1013.2
20220521172906 88 130 10.0 21.0 0.00 0.00 0.00 77 1013.1
20220521172808 88 209 11.0 21.0 0.00 0.00 0.00 77 1013.2
20220521172708 88 128 13.0 21.0 0.00 0.00 0.00 77 1013.3
20220521172605 88 186 11.0 21.0 0.00 0.00 0.00 77 1013.3
20220521172513 88 97 11.0 20.0 0.00 0.00 0.00 77 1013.2
20220521172408 88 141 12.0 20.0 0.00 0.00 0.00 77 1013.2
20220521172305 88 149 11.0 20.0 0.00 0.00 0.00 77 1013.2
20220521172205 87 149 11.0 20.0 0.00 0.00 0.00 77 1013.3
20220521172106 87 157 12.0 20.0 0.00 0.00 0.00 77 1013.3
20220521172005 88 117 12.0 20.0 0.00 0.00 0.00 77 1013.4
20220521171905 88 92 11.0 20.0 0.00 0.00 0.00 77 1013.3
20220521171805 88 130 10.0 20.0 0.00 0.00 0.00 77 1013.4
20220521171705 88 80 10.0 20.0 0.00 0.00 0.00 77 1013.4
20220521171605 88 155 12.0 20.0 0.00 0.00 0.00 77 1013.3
20220521171513 88 159 14.0 20.0 0.00 0.00 0.00 77 1013.3
20220521171405 88 172 12.0 18.0 0.00 0.00 0.00 77 1013.2
20220521171305 88 173 11.0 20.0 0.00 0.00 0.00 77 1013.1
20220521171205 88 149 11.0 20.0 0.00 0.00 0.00 77 1013.2
20220521171108 88 110 9.0 20.0 0.00 0.00 0.00 77 1013.3
20220521171019 88 171 8.0 21.0 0.00 0.00 0.00 77 1013.3
20220521170905 88 106 8.0 21.0 0.00 0.00 0.00 77 1013.2
20220521170805 88 159 8.0 21.0 0.00 0.00 0.00 77 1013.3
20220521170705 88 147 10.0 21.0 0.00 0.00 0.00 78 1013.3
20220521170604 87 111 11.0 21.0 0.00 0.00 0.00 77 1013.2
20220521170511 88 110 12.0 21.0 0.00 0.00 0.00 77 1013.2
20220521170405 88 140 14.0 21.0 0.00 0.00 0.00 77 1013.2
20220521170304 88 176 11.0 21.0 0.00 0.00 0.00 77 1013.1
20220521170205 88 94 11.0 21.0 0.00 0.00 0.00 77 1013.1
20220521170104 88 164 12.0 21.0 0.00 0.00 0.00 78 1013.1
20220521170005 88 107 10.0 21.0 0.00 0.00 0.00 78 1013.2
20220521165907 88 104 10.0 21.0 0.00 0.00 0.00 78 1013.2
20220521165805 88 147 11.0 21.0 0.00 0.00 0.00 77 1013.2
20220521165706 88 128 11.0 21.0 0.00 0.00 0.00 77 1013.2
20220521165605 88 140 10.0 20.0 0.00 0.00 0.00 77 1013.1
20220521165506 88 89 11.0 20.0 0.00 0.00 0.00 77 1013.1
20220521165404 88 137 11.0 20.0 0.00 0.00 0.00 77 1013.1
20220521165309 88 125 11.0 20.0 0.00 0.00 0.00 78 1013.1
20220521165206 88 106 13.0 20.0 0.00 0.00 0.00 77 1013.0
20220521165105 88 93 13.0 20.0 0.00 0.00 0.00 77 1013.1
20220521165006 88 171 13.0 20.0 0.00 0.00 0.00 77 1013.0
20220521164908 88 173 14.0 20.0 0.00 0.00 0.00 77 1013.0
20220521164807 88 176 13.0 20.0 0.00 0.00 0.00 77 1013.0
20220521164706 88 161 10.0 19.0 0.00 0.00 0.00 77 1013.1
20220521164605 88 142 9.0 19.0 0.00 0.00 0.00 78 1013.1
20220521164508 88 145 9.0 19.0 0.00 0.00 0.00 78 1012.9
20220521164404 88 164 9.0 19.0 0.00 0.00 0.00 79 1013.0
20220521164306 87 154 9.0 19.0 0.00 0.00 0.00 78 1013.0
20220521164205 87 127 9.0 19.0 0.00 0.00 0.00 78 1013.0
20220521164105 87 131 10.0 19.0 0.00 0.00 0.00 79 1012.9
20220521164005 87 117 12.0 19.0 0.00 0.00 0.00 78 1013.0
20220521163905 87 142 11.0 19.0 0.00 0.00 0.00 78 1012.8
20220521163804 87 125 10.0 19.0 0.00 0.00 0.00 78 1012.8
20220521163704 87 93 12.0 19.0 0.00 0.00 0.00 78 1012.8
20220521163604 87 140 11.0 19.0 0.00 0.00 0.00 78 1012.8
20220521163506 87 168 9.0 19.0 0.00 0.00 0.00 78 1012.8
20220521163404 87 102 10.0 19.0 0.00 0.00 0.00 79 1012.8
20220521163304 87 109 10.0 19.0 0.00 0.00 0.00 78 1012.9
20220521163204 87 172 10.0 19.0 0.00 0.00 0.00 79 1012.9
20220521163104 87 114 9.0 19.0 0.00 0.00 0.00 79 1012.9
20220521163005 87 161 9.0 20.0 0.00 0.00 0.00 79 1012.9
20220521162905 87 169 12.0 20.0 0.00 0.00 0.00 78 1013.0
20220521162804 87 130 11.0 20.0 0.00 0.00 0.00 78 1012.9
20220521162705 87 93 13.0 20.0 0.00 0.00 0.00 78 1013.0
20220521162604 87 145 13.0 20.0 0.00 0.00 0.00 78 1013.0
20220521162504 87 147 10.0 20.0 0.00 0.00 0.00 78 1013.0
20220521162404 87 116 9.0 20.0 0.00 0.00 0.00 79 1013.0
20220521162304 87 190 11.0 20.0 0.00 0.00 0.00 78 1012.9
20220521162205 87 157 13.0 20.0 0.00 0.00 0.00 77 1013.0
20220521162104 87 176 11.0 20.0 0.00 0.00 0.00 78 1013.0
20220521162006 87 168 9.0 16.0 0.00 0.00 0.00 77 1013.0
20220521161907 88 168 10.0 16.0 0.00 0.00 0.00 77 1012.9
20220521161804 88 125 10.0 18.0 0.00 0.00 0.00 77 1012.9
20220521161705 88 109 10.0 18.0 0.00 0.00 0.00 77 1012.9
20220521161604 88 128 11.0 18.0 0.00 0.00 0.00 77 1012.9
20220521161507 88 169 10.0 19.0 0.00 0.00 0.00 77 1012.8
20220521161404 88 109 10.0 19.0 0.00 0.00 0.00 77 1012.9
20220521161304 88 176 11.0 19.0 0.00 0.00 0.00 77 1012.7
20220521161203 88 135 8.0 19.0 0.00 0.00 0.00 78 1012.8
20220521161103 88 111 6.0 19.0 0.00 0.00 0.00 78 1012.8
20220521161007 87 141 10.0 21.0 0.00 0.00 0.00 78 1012.8
20220521160904 87 148 11.0 21.0 0.00 0.00 0.00 78 1012.7
20220521160805 87 128 10.0 21.0 0.00 0.00 0.00 78 1012.7
20220521160703 87 189 12.0 21.0 0.00 0.00 0.00 78 1012.7
20220521160603 87 128 12.0 21.0 0.00 0.00 0.00 78 1012.7
20220521160505 87 128 10.0 21.0 0.00 0.00 0.00 78 1012.7
20220521160405 87 106 9.0 21.0 0.00 0.00 0.00 78 1012.6
20220521160305 87 111 10.0 21.0 0.00 0.00 0.00 78 1012.7
20220521160205 87 164 12.0 21.0 0.00 0.00 0.00 78 1012.5
20220521160104 87 124 14.0 21.0 0.00 0.00 0.00 78 1012.6
20220521160003 87 152 16.0 21.0 0.00 0.00 0.00 78 1012.7
20220521155903 87 106 15.0 21.0 0.00 0.00 0.00 79 1012.7
20220521155806 87 137 11.0 21.0 0.00 0.00 0.00 80 1012.7
20220521155703 87 114 9.0 21.0 0.00 0.00 0.00 80 1012.7
20220521155605 87 110 9.0 21.0 0.00 0.00 0.00 80 1012.6
20220521155504 87 117 11.0 21.0 0.00 0.00 0.00 80 1012.6
20220521155404 87 135 12.0 21.0 0.00 0.00 0.00 80 1012.7
20220521155304 87 152 10.0 20.0 0.00 0.00 0.00 80 1012.6
20220521155203 87 110 9.0 20.0 0.00 0.00 0.00 79 1012.6
20220521155107 87 169 10.0 20.0 0.00 0.00 0.00 80 1012.7
20220521155006 87 135 12.0 22.0 0.00 0.00 0.00 79 1012.7
20220521154905 87 142 14.0 22.0 0.00 0.00 0.00 79 1012.7
20220521154803 87 124 13.0 22.0 0.00 0.00 0.00 79 1012.6
20220521154706 87 140 11.0 22.0 0.00 0.00 0.00 79 1012.6
20220521154605 87 113 10.0 22.0 0.00 0.00 0.00 79 1012.6
20220521154504 87 166 11.0 22.0 0.00 0.00 0.00 79 1012.6
20220521154403 87 178 11.0 22.0 0.00 0.00 0.00 79 1012.7
20220521154303 87 134 12.0 22.0 0.00 0.00 0.00 79 1012.8
20220521154204 87 141 13.0 22.0 0.00 0.00 0.00 79 1012.8
20220521154102 87 169 11.0 22.0 0.00 0.00 0.00 80 1012.6
20220521154004 87 148 10.0 21.0 0.00 0.00 0.00 80 1012.6
20220521153906 87 128 9.0 21.0 0.00 0.00 0.00 80 1012.7
20220521153804 86 164 10.0 21.0 0.00 0.00 0.00 80 1012.6
20220521153705 86 154 9.0 21.0 0.00 0.00 0.00 81 1012.6
20220521153603 86 169 14.0 21.0 0.00 0.00 0.00 81 1012.6
20220521153503 86 116 14.0 21.0 0.00 0.00 0.00 81 1012.6
20220521153406 86 124 9.0 19.0 0.00 0.00 0.00 81 1012.6
20220521153302 86 152 10.0 19.0 0.00 0.00 0.00 81 1012.6
20220521153205 86 175 10.0 19.0 0.00 0.00 0.00 81 1012.6
20220521153102 86 171 10.0 20.0 0.00 0.00 0.00 81 1012.6
20220521153005 86 166 9.0 20.0 0.00 0.00 0.00 80 1012.6
20220521152904 86 121 10.0 20.0 0.00 0.00 0.00 80 1012.6
20220521152804 86 161 10.0 20.0 0.00 0.00 0.00 81 1012.6
20220521152704 86 137 10.0 20.0 0.00 0.00 0.00 81 1012.7
20220521152602 86 113 11.0 20.0 0.00 0.00 0.00 81 1012.5
20220521152506 86 147 12.0 20.0 0.00 0.00 0.00 80 1012.5
20220521152402 86 159 11.0 20.0 0.00 0.00 0.00 80 1012.5
20220521152304 86 141 13.0 20.0 0.00 0.00 0.00 80 1012.5
20220521152203 86 128 13.0 20.0 0.00 0.00 0.00 81 1012.5
20220521152103 86 111 10.0 19.0 0.00 0.00 0.00 81 1012.5
20220521152006 86 144 12.0 19.0 0.00 0.00 0.00 81 1012.5
20220521151902 86 114 11.0 19.0 0.00 0.00 0.00 80 1012.6
20220521151803 86 172 10.0 19.0 0.00 0.00 0.00 80 1012.6
20220521151702 86 164 10.0 19.0 0.00 0.00 0.00 80 1012.5
20220521151607 86 168 10.0 19.0 0.00 0.00 0.00 80 1012.5
20220521151505 86 199 12.0 19.0 0.00 0.00 0.00 80 1012.5
20220521151403 86 168 11.0 19.0 0.00 0.00 0.00 81 1012.5
20220521151304 86 159 10.0 15.0 0.00 0.00 0.00 81 1012.5
20220521151202 86 124 11.0 15.0 0.00 0.00 0.00 80 1012.5
20220521151103 86 133 9.0 15.0 0.00 0.00 0.00 80 1012.4
20220521151002 86 124 8.0 15.0 0.00 0.00 0.00 80 1012.4
20220521150902 86 140 8.0 15.0 0.00 0.00 0.00 80 1012.5
20220521150805 86 131 7.0 15.0 0.00 0.00 0.00 80 1012.5
20220521150702 86 149 6.0 15.0 0.00 0.00 0.00 80 1012.5
20220521150606 86 196 7.0 15.0 0.00 0.00 0.00 80 1012.5
20220521150501 86 127 8.0 20.0 0.00 0.00 0.00 80 1012.4
20220521150402 86 158 9.0 20.0 0.00 0.00 0.00 80 1012.4
20220521150302 86 93 8.0 20.0 0.00 0.00 0.00 79 1012.4
20220521150202 86 172 7.0 20.0 0.00 0.00 0.00 80 1012.4
20220521150102 86 154 7.0 20.0 0.00 0.00 0.00 80 1012.5
20220521150002 86 120 6.0 20.0 0.00 0.00 0.00 81 1012.5
20220521145903 86 180 7.0 20.0 0.00 0.00 0.00 81 1012.5
20220521145802 86 147 9.0 20.0 0.00 0.00 0.00 81 1012.5
20220521145702 85 131 9.0 20.0 0.00 0.00 0.00 81 1012.4
20220521145602 85 138 10.0 20.0 0.00 0.00 0.00 81 1012.5
20220521145506 85 168 9.0 20.0 0.00 0.00 0.00 81 1012.4
20220521145405 85 147 9.0 20.0 0.00 0.00 0.00 81 1012.5
20220521145303 85 137 9.0 20.0 0.00 0.00 0.00 81 1012.5
20220521145201 85 130 10.0 20.0 0.00 0.00 0.00 81 1012.5
20220521145102 85 168 11.0 20.0 0.00 0.00 0.00 81 1012.4
20220521145001 85 154 10.0 20.0 0.00 0.00 0.00 81 1012.3
20220521144902 85 110 10.0 20.0 0.00 0.00 0.00 81 1012.3
20220521144803 85 161 10.0 20.0 0.00 0.00 0.00 82 1012.3
20220521144703 85 171 8.0 16.0 0.00 0.00 0.00 82 1012.4
20220521144601 85 166 8.0 16.0 0.00 0.00 0.00 82 1012.3
20220521144504 85 152 9.0 16.0 0.00 0.00 0.00 82 1012.4
20220521144402 85 124 10.0 16.0 0.00 0.00 0.00 82 1012.3
20220521144303 85 93 10.0 16.0 0.00 0.00 0.00 82 1012.2
20220521144203 85 92 10.0 16.0 0.00 0.00 0.00 82 1012.3
20220521144102 85 127 9.0 16.0 0.00 0.00 0.00 82 1012.3
20220521144001 85 140 9.0 17.0 0.00 0.00 0.00 82 1012.3
20220521143903 85 121 10.0 17.0 0.00 0.00 0.00 82 1012.3
20220521143806 85 186 9.0 17.0 0.00 0.00 0.00 81 1012.4
20220521143701 85 209 9.0 17.0 0.00 0.00 0.00 82 1012.3
20220521143602 85 138 10.0 17.0 0.00 0.00 0.00 82 1012.3
20220521143503 85 151 8.0 17.0 0.00 0.00 0.00 82 1012.3
20220521143401 85 137 7.0 17.0 0.00 0.00 0.00 83 1012.3
20220521143301 85 97 7.0 17.0 0.00 0.00 0.00 83 1012.3
20220521143202 85 154 9.0 17.0 0.00 0.00 0.00 83 1012.2
20220521143102 85 147 12.0 17.0 0.00 0.00 0.00 83 1012.2
20220521143001 84 151 10.0 17.0 0.00 0.00 0.00 83 1012.3
20220521142901 84 128 10.0 17.0 0.00 0.00 0.00 83 1012.3
20220521142806 84 148 11.0 17.0 0.00 0.00 0.00 83 1012.2
20220521142701 84 128 11.0 17.0 0.00 0.00 0.00 83 1012.2
20220521142602 84 127 10.0 17.0 0.00 0.00 0.00 83 1012.2
20220521142501 84 148 10.0 17.0 0.00 0.00 0.00 83 1012.3
20220521142408 84 104 9.0 17.0 0.00 0.00 0.00 83 1012.1
20220521142300 84 162 8.0 18.0 0.00 0.00 0.00 84 1012.1
20220521142202 84 113 10.0 18.0 0.00 0.00 0.00 84 1012.1
20220521142101 84 149 11.0 18.0 0.00 0.00 0.00 83 1012.1
20220521142004 84 145 10.0 19.0 0.00 0.00 0.00 83 1012.1
20220521141901 84 155 9.0 19.0 0.00 0.00 0.00 84 1012.1
20220521141800 84 97 9.0 19.0 0.00 0.00 0.00 84 1012.1
20220521141705 84 162 11.0 19.0 0.00 0.00 0.00 84 1012.1
20220521141601 84 93 11.0 19.0 0.00 0.00 0.00 83 1012.0
20220521141501 84 157 10.0 19.0 0.00 0.00 0.00 83 1012.1
20220521141408 84 140 10.0 19.0 0.00 0.00 0.00 84 1012.0
20220521141302 84 140 10.0 19.0 0.00 0.00 0.00 84 1012.0
20220521141201 84 176 12.0 19.0 0.00 0.00 0.00 84 1012.0
20220521141100 84 120 12.0 19.0 0.00 0.00 0.00 84 1012.0
20220521141001 84 145 10.0 19.0 0.00 0.00 0.00 83 1012.0
20220521140900 84 121 10.0 19.0 0.00 0.00 0.00 84 1012.0
20220521140801 84 161 10.0 21.0 0.00 0.00 0.00 84 1011.9
20220521140703 84 120 9.0 23.0 0.00 0.00 0.00 84 1011.9
20220521140603 84 135 9.0 23.0 0.00 0.00 0.00 84 1012.1
20220521140502 84 145 9.0 23.0 0.00 0.00 0.00 84 1011.9
20220521140401 84 135 8.0 23.0 0.00 0.00 0.00 84 1011.9
20220521140304 84 162 9.0 23.0 0.00 0.00 0.00 84 1011.9
20220521140203 84 166 11.0 23.0 0.00 0.00 0.00 84 1012.0
20220521140100 83 172 11.0 23.0 0.00 0.00 0.00 84 1011.8
20220521140003 83 157 12.0 23.0 0.00 0.00 0.00 84 1011.9
20220521135900 83 148 12.0 23.0 0.00 0.00 0.00 84 1011.9
20220521135801 83 157 11.0 22.0 0.00 0.00 0.00 84 1011.9
20220521135700 83 164 10.0 18.0 0.00 0.00 0.00 84 1011.9
20220521135603 83 179 9.0 18.0 0.00 0.00 0.00 84 1011.9
20220521135500 83 127 8.0 18.0 0.00 0.00 0.00 84 1012.0
20220521135400 83 124 9.0 18.0 0.00 0.00 0.00 84 1012.0
20220521135303 84 124 10.0 18.0 0.00 0.00 0.00 84 1012.0
20220521135200 84 157 9.0 18.0 0.00 0.00 0.00 84 1011.9
20220521135103 84 138 11.0 18.0 0.00 0.00 0.00 84 1011.9
20220521135001 84 158 11.0 19.0 0.00 0.00 0.00 84 1012.0
20220521134908 84 206 11.0 19.0 0.00 0.00 0.00 84 1011.9
20220521134802 84 133 11.0 19.0 0.00 0.00 0.00 84 1011.9
20220521134701 84 130 9.0 19.0 0.00 0.00 0.00 84 1011.9
20220521134602 84 109 9.0 19.0 0.00 0.00 0.00 85 1011.8
20220521134500 83 107 9.0 19.0 0.00 0.00 0.00 85 1011.8
20220521134401 83 148 8.0 19.0 0.00 0.00 0.00 85 1011.8
20220521134302 83 151 7.0 19.0 0.00 0.00 0.00 85 1011.7
20220521134204 83 111 10.0 19.0 0.00 0.00 0.00 85 1011.8
20220521134100 83 169 13.0 19.0 0.00 0.00 0.00 85 1011.8
20220521134001 83 176 12.0 18.0 0.00 0.00 0.00 85 1011.7
20220521133902 83 103 12.0 20.0 0.00 0.00 0.00 85 1011.7
20220521133800 83 158 11.0 20.0 0.00 0.00 0.00 85 1011.6
20220521133701 83 162 11.0 20.0 0.00 0.00 0.00 85 1011.6
20220521133600 83 155 11.0 20.0 0.00 0.00 0.00 85 1011.5
20220521133503 83 121 10.0 20.0 0.00 0.00 0.00 85 1011.6
20220521133400 83 169 12.0 20.0 0.00 0.00 0.00 86 1011.5
20220521133302 83 161 11.0 20.0 0.00 0.00 0.00 85 1011.5
20220521133202 83 166 11.0 20.0 0.00 0.00 0.00 85 1011.5
20220521133100 83 166 13.0 20.0 0.00 0.00 0.00 85 1011.4
20220521133000 83 145 11.0 20.0 0.00 0.00 0.00 85 1011.4
20220521132901 83 130 8.0 16.0 0.00 0.00 0.00 86 1011.4
20220521132800 83 165 9.0 16.0 0.00 0.00 0.00 86 1011.4
20220521132700 83 158 10.0 17.0 0.00 0.00 0.00 86 1011.4
20220521132600 83 152 11.0 17.0 0.00 0.00 0.00 86 1011.4
20220521132500 83 142 10.0 20.0 0.00 0.00 0.00 86 1011.4
20220521132400 83 154 8.0 20.0 0.00 0.00 0.00 86 1011.2
20220521132301 83 118 6.0 20.0 0.00 0.00 0.00 87 1011.3
20220521132202 82 116 9.0 20.0 0.00 0.00 0.00 87 1011.3
20220521132101 82 130 10.0 20.0 0.00 0.00 0.00 87 1011.2
20220521132000 82 149 8.0 20.0 0.00 0.00 0.00 87 1011.2
20220521131859 82 147 9.0 20.0 0.00 0.00 0.00 87 1011.1
20220521131801 82 180 10.0 20.0 0.00 0.00 0.00 87 1011.1
20220521131700 82 151 10.0 20.0 0.00 0.00 0.00 87 1011.1
20220521131559 82 104 10.0 20.0 0.00 0.00 0.00 87 1011.2
20220521131501 82 133 9.0 20.0 0.00 0.00 0.00 87 1011.2